| time (UTC) | temp C | wind direction | speed KPH | gust KPH | rain 1hr cm | rain 24hr cm | rain mn cm | humidity % | barometer mb |
| 20260906113624 | 14 | 0 | 0.0 | 0.0 | 0.00 | 0.00 | 0.00 | 80 | 1019.1 |
| 20260906113403 | 14 | 0 | 0.0 | 0.0 | 0.00 | 0.00 | 0.00 | 80 | 1019.1 |
| 20260906113203 | 14 | 0 | 0.0 | 0.0 | 0.00 | 0.00 | 0.00 | 80 | 1019.1 |
| 20260906113003 | 14 | 0 | 0.0 | 0.0 | 0.00 | 0.00 | 0.00 | 80 | 1019.1 |
| 20260906112803 | 14 | 0 | 0.0 | 0.0 | 0.00 | 0.00 | 0.00 | 80 | 1019.1 |
| 20260906112603 | 14 | 0 | 0.0 | 0.0 | 0.00 | 0.00 | 0.00 | 80 | 1019.0 |
| 20260906112403 | 13 | 0 | 0.0 | 0.0 | 0.00 | 0.00 | 0.00 | 80 | 1019.0 |
| 20260906112203 | 14 | 0 | 0.0 | 0.0 | 0.00 | 0.00 | 0.00 | 80 | 1019.0 |
| 20260906112003 | 13 | 0 | 0.0 | 0.0 | 0.00 | 0.00 | 0.00 | 80 | 1019.0 |
| 20260906111803 | 13 | 0 | 0.0 | 0.0 | 0.00 | 0.00 | 0.00 | 80 | 1019.0 |
| 20260906111603 | 14 | 0 | 0.0 | 0.0 | 0.00 | 0.00 | 0.00 | 79 | 1019.0 |
| 20260906111424 | 14 | 0 | 0.0 | 0.0 | 0.00 | 0.00 | 0.00 | 79 | 1019.0 |
| 20260906111203 | 14 | 0 | 0.0 | 0.0 | 0.00 | 0.00 | 0.00 | 79 | 1019.1 |
| 20260906111003 | 13 | 0 | 0.0 | 0.0 | 0.00 | 0.00 | 0.00 | 79 | 1019.0 |
| 20260906110803 | 13 | 0 | 0.0 | 0.0 | 0.00 | 0.00 | 0.00 | 79 | 1019.0 |
| 20260906110624 | 13 | 0 | 0.0 | 0.0 | 0.00 | 0.00 | 0.00 | 79 | 1019.0 |
| 20260906110424 | 13 | 0 | 0.0 | 0.0 | 0.00 | 0.00 | 0.00 | 79 | 1019.0 |
| 20260906110203 | 14 | 0 | 0.0 | 0.0 | 0.00 | 0.00 | 0.00 | 79 | 1018.9 |
| 20260906110003 | 14 | 0 | 0.0 | 0.0 | 0.00 | 0.00 | 0.00 | 79 | 1018.9 |
| 20260906105803 | 14 | 0 | 0.0 | 0.0 | 0.00 | 0.00 | 0.00 | 79 | 1018.9 |
| 20260906105603 | 13 | 0 | 0.0 | 0.0 | 0.00 | 0.00 | 0.00 | 79 | 1018.9 |
| 20260906105403 | 14 | 0 | 0.0 | 0.0 | 0.00 | 0.00 | 0.00 | 79 | 1018.8 |
| 20260906105203 | 14 | 0 | 0.0 | 0.0 | 0.00 | 0.00 | 0.00 | 79 | 1018.8 |
| 20260906105003 | 14 | 0 | 0.0 | 0.0 | 0.00 | 0.00 | 0.00 | 79 | 1018.7 |
| 20260906104824 | 14 | 0 | 0.0 | 0.0 | 0.00 | 0.00 | 0.00 | 79 | 1018.7 |
| 20260906104603 | 14 | 0 | 0.0 | 0.0 | 0.00 | 0.00 | 0.00 | 79 | 1018.7 |
| 20260906104424 | 14 | 0 | 0.0 | 0.0 | 0.00 | 0.00 | 0.00 | 79 | 1018.7 |
| 20260906104224 | 14 | 0 | 0.0 | 0.0 | 0.00 | 0.00 | 0.00 | 79 | 1018.7 |
| 20260906104024 | 14 | 0 | 0.0 | 0.0 | 0.00 | 0.00 | 0.00 | 79 | 1018.6 |
| 20260906103824 | 14 | 0 | 0.0 | 0.0 | 0.00 | 0.00 | 0.00 | 79 | 1018.6 |
| 20260906103603 | 14 | 0 | 0.0 | 0.0 | 0.00 | 0.00 | 0.00 | 79 | 1018.6 |
| 20260906103403 | 14 | 0 | 0.0 | 0.0 | 0.00 | 0.00 | 0.00 | 79 | 1018.5 |
| 20260906103224 | 14 | 0 | 0.0 | 0.0 | 0.00 | 0.00 | 0.00 | 79 | 1018.6 |
| 20260906103003 | 14 | 0 | 0.0 | 0.0 | 0.00 | 0.00 | 0.00 | 79 | 1018.5 |
| 20260906102824 | 14 | 0 | 0.0 | 0.0 | 0.00 | 0.00 | 0.00 | 79 | 1018.5 |
| 20260906102603 | 14 | 0 | 0.0 | 0.0 | 0.00 | 0.00 | 0.00 | 79 | 1018.5 |
| 20260906102403 | 14 | 0 | 0.0 | 0.0 | 0.00 | 0.00 | 0.00 | 79 | 1018.6 |
| 20260906102203 | 14 | 0 | 0.0 | 0.0 | 0.00 | 0.00 | 0.00 | 79 | 1018.5 |
| 20260906102003 | 14 | 0 | 0.0 | 0.0 | 0.00 | 0.00 | 0.00 | 79 | 1018.6 |
| 20260906101803 | 14 | 0 | 0.0 | 0.0 | 0.00 | 0.00 | 0.00 | 79 | 1018.6 |
| 20260906101603 | 14 | 0 | 0.0 | 0.0 | 0.00 | 0.00 | 0.00 | 79 | 1018.7 |
| 20260906101403 | 14 | 0 | 0.0 | 0.0 | 0.00 | 0.00 | 0.00 | 78 | 1018.6 |
| 20260906101203 | 14 | 0 | 0.0 | 0.0 | 0.00 | 0.00 | 0.00 | 79 | 1018.6 |
| 20260906101003 | 14 | 203 | 0.0 | 1.6 | 0.00 | 0.00 | 0.00 | 78 | 1018.6 |
| 20260906100803 | 14 | 203 | 0.0 | 1.6 | 0.00 | 0.00 | 0.00 | 78 | 1018.6 |
| 20260906100603 | 14 | 203 | 0.0 | 1.6 | 0.00 | 0.00 | 0.00 | 78 | 1018.6 |
| 20260906100403 | 14 | 203 | 0.0 | 1.6 | 0.00 | 0.00 | 0.00 | 78 | 1018.5 |
| 20260906100203 | 14 | 203 | 0.0 | 1.6 | 0.00 | 0.00 | 0.00 | 78 | 1018.6 |
| 20260906100003 | 14 | 0 | 0.0 | 0.0 | 0.00 | 0.00 | 0.00 | 78 | 1018.6 |
| 20260906095803 | 14 | 0 | 0.0 | 0.0 | 0.00 | 0.00 | 0.00 | 78 | 1018.5 |
| 20260906095603 | 14 | 0 | 0.0 | 0.0 | 0.00 | 0.00 | 0.00 | 78 | 1018.5 |
| 20260906095403 | 14 | 0 | 0.0 | 0.0 | 0.00 | 0.00 | 0.00 | 78 | 1018.5 |
| 20260906095203 | 14 | 0 | 0.0 | 0.0 | 0.00 | 0.00 | 0.00 | 78 | 1018.5 |
| 20260906095003 | 15 | 0 | 0.0 | 0.0 | 0.00 | 0.00 | 0.00 | 78 | 1018.4 |
| 20260906094824 | 15 | 0 | 0.0 | 0.0 | 0.00 | 0.00 | 0.00 | 78 | 1018.4 |
| 20260906094603 | 15 | 0 | 0.0 | 0.0 | 0.00 | 0.00 | 0.00 | 78 | 1018.5 |
| 20260906094403 | 15 | 0 | 0.0 | 0.0 | 0.00 | 0.00 | 0.00 | 78 | 1018.5 |
| 20260906094203 | 15 | 0 | 0.0 | 0.0 | 0.00 | 0.00 | 0.00 | 78 | 1018.5 |
| 20260906094003 | 15 | 0 | 0.0 | 0.0 | 0.00 | 0.00 | 0.00 | 78 | 1018.4 |
| 20260906093803 | 15 | 0 | 0.0 | 0.0 | 0.00 | 0.00 | 0.00 | 78 | 1018.4 |
| 20260906093603 | 15 | 190 | 0.0 | 6.4 | 0.00 | 0.00 | 0.00 | 78 | 1018.4 |
| 20260906093403 | 15 | 191 | 0.0 | 6.4 | 0.00 | 0.00 | 0.00 | 78 | 1018.3 |
| 20260906093203 | 15 | 191 | 0.0 | 6.4 | 0.00 | 0.00 | 0.00 | 78 | 1018.3 |
| 20260906093003 | 15 | 191 | 0.0 | 6.4 | 0.00 | 0.00 | 0.00 | 78 | 1018.2 |
| 20260906092803 | 15 | 191 | 0.0 | 6.4 | 0.00 | 0.00 | 0.00 | 78 | 1018.2 |
| 20260906092603 | 15 | 191 | 0.0 | 6.4 | 0.00 | 0.00 | 0.00 | 78 | 1018.2 |
| 20260906092403 | 15 | 191 | 0.0 | 4.8 | 0.00 | 0.00 | 0.00 | 78 | 1018.2 |
| 20260906092203 | 15 | 192 | 0.0 | 4.8 | 0.00 | 0.00 | 0.00 | 78 | 1018.3 |
| 20260906092003 | 15 | 200 | 0.0 | 1.6 | 0.00 | 0.00 | 0.00 | 78 | 1018.3 |
| 20260906091803 | 15 | 200 | 0.0 | 1.6 | 0.00 | 0.00 | 0.00 | 78 | 1018.3 |
| 20260906091603 | 15 | 200 | 0.0 | 1.6 | 0.00 | 0.00 | 0.00 | 78 | 1018.4 |
| 20260906091403 | 15 | 200 | 0.0 | 1.6 | 0.00 | 0.00 | 0.00 | 78 | 1018.4 |
| 20260906091203 | 15 | 192 | 0.0 | 1.6 | 0.00 | 0.00 | 0.00 | 78 | 1018.4 |
| 20260906091024 | 15 | 0 | 0.0 | 0.0 | 0.00 | 0.00 | 0.00 | 78 | 1018.4 |
| 20260906090803 | 15 | 0 | 0.0 | 0.0 | 0.00 | 0.00 | 0.00 | 78 | 1018.4 |
| 20260906090603 | 15 | 0 | 0.0 | 0.0 | 0.00 | 0.00 | 0.00 | 78 | 1018.5 |
| 20260906090403 | 15 | 0 | 0.0 | 0.0 | 0.00 | 0.00 | 0.00 | 78 | 1018.5 |
| 20260906090203 | 15 | 0 | 0.0 | 0.0 | 0.00 | 0.00 | 0.00 | 78 | 1018.4 |
| 20260906090004 | 15 | 0 | 0.0 | 0.0 | 0.00 | 0.00 | 0.00 | 78 | 1018.4 |
| 20260906085803 | 15 | 193 | 0.0 | 3.2 | 0.00 | 0.00 | 0.00 | 78 | 1018.3 |
| 20260906085603 | 15 | 190 | 1.6 | 8.0 | 0.00 | 0.00 | 0.00 | 78 | 1018.4 |
| 20260906085403 | 15 | 188 | 1.6 | 8.0 | 0.00 | 0.00 | 0.00 | 78 | 1018.4 |
| 20260906085203 | 15 | 187 | 3.2 | 8.0 | 0.00 | 0.00 | 0.00 | 78 | 1018.4 |
| 20260906085003 | 15 | 185 | 3.2 | 8.0 | 0.00 | 0.00 | 0.00 | 78 | 1018.4 |
| 20260906084803 | 15 | 183 | 4.8 | 11.3 | 0.00 | 0.00 | 0.00 | 78 | 1018.3 |
| 20260906084603 | 15 | 180 | 4.8 | 11.3 | 0.00 | 0.00 | 0.00 | 78 | 1018.3 |
| 20260906084403 | 15 | 179 | 3.2 | 11.3 | 0.00 | 0.00 | 0.00 | 78 | 1018.3 |
| 20260906084203 | 15 | 177 | 3.2 | 11.3 | 0.00 | 0.00 | 0.00 | 78 | 1018.3 |
| 20260906084003 | 15 | 178 | 1.6 | 11.3 | 0.00 | 0.00 | 0.00 | 78 | 1018.2 |
| 20260906083803 | 15 | 177 | 1.6 | 6.4 | 0.00 | 0.00 | 0.00 | 78 | 1018.2 |
| 20260906083603 | 16 | 191 | 0.0 | 6.4 | 0.00 | 0.00 | 0.00 | 78 | 1018.3 |
| 20260906083403 | 16 | 193 | 0.0 | 6.4 | 0.00 | 0.00 | 0.00 | 78 | 1018.3 |
| 20260906083224 | 16 | 193 | 0.0 | 6.4 | 0.00 | 0.00 | 0.00 | 78 | 1018.3 |
| 20260906083003 | 16 | 0 | 0.0 | 0.0 | 0.00 | 0.00 | 0.00 | 79 | 1018.2 |
| 20260906082803 | 16 | 0 | 0.0 | 0.0 | 0.00 | 0.00 | 0.00 | 78 | 1018.3 |
| 20260906082603 | 16 | 0 | 0.0 | 0.0 | 0.00 | 0.00 | 0.00 | 79 | 1018.2 |
| 20260906082403 | 16 | 0 | 0.0 | 0.0 | 0.00 | 0.00 | 0.00 | 79 | 1018.2 |
| 20260906082203 | 16 | 0 | 0.0 | 0.0 | 0.00 | 0.00 | 0.00 | 79 | 1018.2 |
| 20260906082024 | 16 | 0 | 0.0 | 0.0 | 0.00 | 0.00 | 0.00 | 79 | 1018.2 |
| 20260906081803 | 16 | 0 | 0.0 | 0.0 | 0.00 | 0.00 | 0.00 | 79 | 1018.2 |
| 20260906081603 | 16 | 190 | 0.0 | 6.4 | 0.00 | 0.00 | 0.00 | 78 | 1018.2 |
| 20260906081403 | 16 | 190 | 0.0 | 6.4 | 0.00 | 0.00 | 0.00 | 78 | 1018.2 |
| 20260906081203 | 16 | 190 | 0.0 | 6.4 | 0.00 | 0.00 | 0.00 | 78 | 1018.2 |
| 20260906081024 | 16 | 190 | 0.0 | 6.4 | 0.00 | 0.00 | 0.00 | 78 | 1018.2 |
| 20260906080824 | 16 | 190 | 0.0 | 6.4 | 0.00 | 0.00 | 0.00 | 78 | 1018.2 |
| 20260906080603 | 16 | 0 | 0.0 | 0.0 | 0.00 | 0.00 | 0.00 | 78 | 1018.2 |
| 20260906080403 | 16 | 0 | 0.0 | 0.0 | 0.00 | 0.00 | 0.00 | 78 | 1018.2 |
| 20260906080224 | 16 | 0 | 0.0 | 0.0 | 0.00 | 0.00 | 0.00 | 78 | 1018.2 |
| 20260906080003 | 16 | 0 | 0.0 | 0.0 | 0.00 | 0.00 | 0.00 | 78 | 1018.1 |
| 20260906075803 | 16 | 0 | 0.0 | 0.0 | 0.00 | 0.00 | 0.00 | 78 | 1018.2 |
| 20260906075603 | 16 | 0 | 0.0 | 0.0 | 0.00 | 0.00 | 0.00 | 78 | 1018.1 |
| 20260906075403 | 16 | 0 | 0.0 | 0.0 | 0.00 | 0.00 | 0.00 | 78 | 1018.2 |
| 20260906075203 | 16 | 0 | 0.0 | 0.0 | 0.00 | 0.00 | 0.00 | 78 | 1018.2 |
| 20260906075025 | 16 | 0 | 0.0 | 0.0 | 0.00 | 0.03 | 0.00 | 78 | 1018.2 |
| 20260906074803 | 16 | 0 | 0.0 | 0.0 | 0.00 | 0.03 | 0.00 | 78 | 1018.2 |
| 20260906074624 | 16 | 0 | 0.0 | 0.0 | 0.00 | 0.03 | 0.00 | 78 | 1018.2 |
| 20260906074403 | 16 | 0 | 0.0 | 0.0 | 0.00 | 0.03 | 0.00 | 78 | 1018.1 |
| 20260906074203 | 17 | 0 | 0.0 | 0.0 | 0.00 | 0.03 | 0.00 | 78 | 1018.1 |
| 20260906074003 | 17 | 0 | 0.0 | 0.0 | 0.00 | 0.03 | 0.00 | 78 | 1018.1 |
| 20260906073803 | 17 | 0 | 0.0 | 0.0 | 0.00 | 0.03 | 0.00 | 77 | 1018.1 |
| 20260906073603 | 17 | 0 | 0.0 | 0.0 | 0.00 | 0.03 | 0.00 | 78 | 1018.1 |
| 20260906073403 | 17 | 0 | 0.0 | 0.0 | 0.00 | 0.03 | 0.00 | 78 | 1018.1 |
| 20260906073203 | 17 | 0 | 0.0 | 0.0 | 0.00 | 0.03 | 0.00 | 78 | 1018.0 |
| 20260906073003 | 17 | 0 | 0.0 | 0.0 | 0.00 | 0.03 | 0.00 | 78 | 1017.9 |
| 20260906072803 | 17 | 0 | 0.0 | 0.0 | 0.00 | 0.03 | 0.00 | 78 | 1017.9 |
| 20260906072603 | 17 | 0 | 0.0 | 0.0 | 0.00 | 0.03 | 0.00 | 78 | 1017.9 |
| 20260906072403 | 17 | 0 | 0.0 | 0.0 | 0.00 | 0.03 | 0.00 | 78 | 1017.9 |
| 20260906072224 | 17 | 0 | 0.0 | 0.0 | 0.00 | 0.03 | 0.00 | 78 | 1018.0 |
| 20260906072003 | 17 | 0 | 0.0 | 0.0 | 0.00 | 0.03 | 0.00 | 78 | 1018.0 |
| 20260906071803 | 17 | 0 | 0.0 | 0.0 | 0.00 | 0.03 | 0.00 | 78 | 1018.0 |
| 20260906071624 | 17 | 0 | 0.0 | 0.0 | 0.00 | 0.03 | 0.00 | 78 | 1018.0 |
| 20260906071424 | 17 | 0 | 0.0 | 0.0 | 0.00 | 0.03 | 0.00 | 78 | 1018.0 |
| 20260906071203 | 17 | 0 | 0.0 | 0.0 | 0.00 | 0.03 | 0.00 | 78 | 1018.0 |
| 20260906071003 | 17 | 0 | 0.0 | 0.0 | 0.00 | 0.03 | 0.00 | 78 | 1018.0 |
| 20260906070803 | 17 | 0 | 0.0 | 0.0 | 0.00 | 0.03 | 0.00 | 78 | 1018.0 |
| 20260906070603 | 17 | 0 | 0.0 | 0.0 | 0.00 | 0.03 | 0.00 | 78 | 1018.0 |
| 20260906070424 | 17 | 0 | 0.0 | 0.0 | 0.00 | 0.03 | 0.00 | 78 | 1018.0 |
| 20260906070203 | 17 | 0 | 0.0 | 0.0 | 0.00 | 0.03 | 0.00 | 78 | 1018.1 |
| 20260906070003 | 17 | 0 | 0.0 | 0.0 | 0.00 | 0.03 | 0.00 | 78 | 1018.0 |
| 20260906065824 | 17 | 0 | 0.0 | 0.0 | 0.00 | 0.03 | 0.00 | 78 | 1018.0 |
| 20260906065624 | 17 | 0 | 0.0 | 0.0 | 0.00 | 0.03 | 0.00 | 78 | 1018.0 |
| 20260906065403 | 17 | 0 | 0.0 | 0.0 | 0.00 | 0.03 | 0.00 | 78 | 1018.0 |
| 20260906065203 | 17 | 0 | 0.0 | 0.0 | 0.00 | 0.03 | 0.00 | 78 | 1018.0 |
| 20260906065003 | 17 | 0 | 0.0 | 0.0 | 0.00 | 0.03 | 0.00 | 78 | 1018.1 |
| 20260906064803 | 17 | 0 | 0.0 | 0.0 | 0.00 | 0.05 | 0.00 | 78 | 1018.1 |
| 20260906064603 | 17 | 0 | 0.0 | 0.0 | 0.00 | 0.05 | 0.00 | 78 | 1018.2 |
| 20260906064403 | 17 | 0 | 0.0 | 0.0 | 0.00 | 0.08 | 0.00 | 78 | 1018.2 |
| 20260906064203 | 17 | 0 | 0.0 | 0.0 | 0.00 | 0.08 | 0.00 | 77 | 1018.2 |
| 20260906064024 | 17 | 0 | 0.0 | 0.0 | 0.00 | 0.08 | 0.00 | 77 | 1018.2 |
| 20260906063803 | 17 | 0 | 0.0 | 0.0 | 0.00 | 0.08 | 0.00 | 77 | 1018.1 |
| 20260906063603 | 17 | 0 | 0.0 | 0.0 | 0.00 | 0.08 | 0.00 | 77 | 1018.2 |
| 20260906063403 | 17 | 0 | 0.0 | 0.0 | 0.00 | 0.08 | 0.00 | 77 | 1018.2 |
| 20260906063203 | 17 | 0 | 0.0 | 0.0 | 0.00 | 0.08 | 0.00 | 77 | 1018.1 |
| 20260906063003 | 17 | 0 | 0.0 | 0.0 | 0.00 | 0.08 | 0.00 | 77 | 1018.1 |
| 20260906062824 | 17 | 0 | 0.0 | 0.0 | 0.00 | 0.08 | 0.00 | 77 | 1018.2 |
| 20260906062603 | 17 | 0 | 0.0 | 0.0 | 0.00 | 0.08 | 0.00 | 77 | 1018.1 |
| 20260906062403 | 17 | 0 | 0.0 | 0.0 | 0.00 | 0.08 | 0.00 | 78 | 1018.1 |
| 20260906062224 | 17 | 0 | 0.0 | 0.0 | 0.00 | 0.08 | 0.00 | 77 | 1018.1 |
| 20260906062003 | 17 | 0 | 0.0 | 0.0 | 0.00 | 0.08 | 0.00 | 77 | 1018.2 |
| 20260906061803 | 17 | 0 | 0.0 | 0.0 | 0.00 | 0.08 | 0.00 | 77 | 1018.1 |
| 20260906061603 | 17 | 0 | 0.0 | 0.0 | 0.00 | 0.08 | 0.00 | 77 | 1018.2 |
| 20260906061403 | 17 | 0 | 0.0 | 0.0 | 0.00 | 0.10 | 0.00 | 77 | 1018.1 |
| 20260906061203 | 17 | 0 | 0.0 | 0.0 | 0.00 | 0.10 | 0.00 | 77 | 1018.1 |
| 20260906061003 | 17 | 0 | 0.0 | 0.0 | 0.00 | 0.10 | 0.00 | 77 | 1018.1 |
| 20260906060803 | 17 | 0 | 0.0 | 0.0 | 0.00 | 0.10 | 0.00 | 77 | 1018.1 |
| 20260906060624 | 17 | 0 | 0.0 | 0.0 | 0.00 | 0.13 | 0.00 | 77 | 1018.0 |
| 20260906060403 | 17 | 0 | 0.0 | 0.0 | 0.00 | 0.13 | 0.00 | 77 | 1018.0 |
| 20260906060203 | 17 | 0 | 0.0 | 0.0 | 0.00 | 0.13 | 0.00 | 76 | 1017.9 |
| 20260906060004 | 17 | 0 | 0.0 | 0.0 | 0.00 | 0.13 | 0.00 | 76 | 1017.9 |
| 20260906055803 | 17 | 0 | 0.0 | 0.0 | 0.00 | 0.13 | 0.00 | 76 | 1017.9 |
| 20260906055603 | 18 | 0 | 0.0 | 0.0 | 0.00 | 0.13 | 0.00 | 76 | 1017.9 |
| 20260906055403 | 18 | 0 | 0.0 | 0.0 | 0.00 | 0.13 | 0.00 | 76 | 1017.8 |
| 20260906055204 | 18 | 0 | 0.0 | 0.0 | 0.00 | 0.13 | 0.00 | 76 | 1017.8 |
| 20260906055003 | 18 | 0 | 0.0 | 0.0 | 0.00 | 0.13 | 0.00 | 76 | 1017.8 |
| 20260906054803 | 18 | 0 | 0.0 | 0.0 | 0.00 | 0.13 | 0.00 | 76 | 1017.8 |
| 20260906054603 | 18 | 0 | 0.0 | 0.0 | 0.00 | 0.13 | 0.00 | 76 | 1017.8 |
| 20260906054403 | 18 | 0 | 0.0 | 0.0 | 0.00 | 0.13 | 0.00 | 76 | 1017.8 |
| 20260906054203 | 18 | 0 | 0.0 | 0.0 | 0.00 | 0.13 | 0.00 | 76 | 1017.9 |
| 20260906054003 | 18 | 0 | 0.0 | 0.0 | 0.00 | 0.13 | 0.00 | 76 | 1017.8 |
| 20260906053803 | 18 | 0 | 0.0 | 0.0 | 0.00 | 0.13 | 0.00 | 76 | 1017.8 |
| 20260906053603 | 18 | 181 | 0.0 | 4.8 | 0.00 | 0.13 | 0.00 | 76 | 1017.8 |
| 20260906053403 | 18 | 184 | 0.0 | 4.8 | 0.00 | 0.13 | 0.00 | 76 | 1017.8 |
| 20260906053203 | 18 | 184 | 0.0 | 4.8 | 0.00 | 0.13 | 0.00 | 76 | 1017.8 |
| 20260906053003 | 18 | 184 | 0.0 | 4.8 | 0.00 | 0.13 | 0.00 | 76 | 1017.8 |
| 20260906052824 | 18 | 186 | 0.0 | 4.8 | 0.00 | 0.13 | 0.00 | 76 | 1017.8 |
| 20260906052624 | 18 | 189 | 0.0 | 4.8 | 0.00 | 0.13 | 0.00 | 76 | 1017.8 |
| 20260906052403 | 18 | 191 | 0.0 | 4.8 | 0.00 | 0.13 | 0.00 | 76 | 1017.8 |
| 20260906052224 | 18 | 191 | 0.0 | 4.8 | 0.00 | 0.13 | 0.00 | 76 | 1017.7 |
| 20260906052003 | 18 | 180 | 1.6 | 8.0 | 0.00 | 0.13 | 0.00 | 76 | 1017.7 |
| 20260906051824 | 18 | 182 | 1.6 | 8.0 | 0.00 | 0.15 | 0.00 | 76 | 1017.7 |
| 20260906051603 | 18 | 182 | 1.6 | 8.0 | 0.00 | 0.15 | 0.00 | 76 | 1017.7 |
| 20260906051403 | 18 | 182 | 3.2 | 8.0 | 0.00 | 0.15 | 0.00 | 76 | 1017.7 |
| 20260906051224 | 18 | 180 | 3.2 | 8.0 | 0.00 | 0.15 | 0.00 | 75 | 1017.7 |
| 20260906051003 | 18 | 180 | 3.2 | 9.7 | 0.00 | 0.15 | 0.00 | 75 | 1017.6 |
| 20260906050824 | 18 | 178 | 3.2 | 9.7 | 0.00 | 0.15 | 0.00 | 75 | 1017.6 |
| 20260906050603 | 18 | 177 | 1.6 | 9.7 | 0.00 | 0.15 | 0.00 | 76 | 1017.6 |
| 20260906050424 | 18 | 176 | 1.6 | 9.7 | 0.00 | 0.15 | 0.00 | 76 | 1017.5 |
| 20260906050203 | 18 | 177 | 1.6 | 9.7 | 0.00 | 0.15 | 0.00 | 76 | 1017.5 |
| 20260906050003 | 18 | 173 | 1.6 | 8.0 | 0.00 | 0.18 | 0.00 | 76 | 1017.5 |
| 20260906045824 | 18 | 178 | 1.6 | 8.0 | 0.00 | 0.20 | 0.00 | 76 | 1017.5 |
| 20260906045603 | 18 | 180 | 1.6 | 9.7 | 0.00 | 0.25 | 0.00 | 76 | 1017.5 |
| 20260906045403 | 18 | 180 | 1.6 | 9.7 | 0.00 | 0.30 | 0.00 | 76 | 1017.5 |
| 20260906045224 | 18 | 177 | 1.6 | 11.3 | 0.00 | 0.33 | 0.00 | 76 | 1017.5 |
| 20260906045003 | 18 | 179 | 3.2 | 14.5 | 0.00 | 0.36 | 0.00 | 76 | 1017.5 |
| 20260906044803 | 18 | 178 | 3.2 | 14.5 | 0.00 | 0.36 | 0.00 | 76 | 1017.4 |
| 20260906044603 | 18 | 179 | 4.8 | 14.5 | 0.00 | 0.41 | 0.00 | 76 | 1017.4 |
| 20260906044403 | 18 | 180 | 6.4 | 17.7 | 0.00 | 0.41 | 0.00 | 76 | 1017.3 |
| 20260906044224 | 18 | 180 | 6.4 | 17.7 | 0.00 | 0.41 | 0.00 | 76 | 1017.3 |
| 20260906044024 | 18 | 182 | 6.4 | 17.7 | 0.00 | 0.41 | 0.00 | 76 | 1017.3 |
| 20260906043803 | 18 | 184 | 6.4 | 17.7 | 0.00 | 0.41 | 0.00 | 76 | 1017.3 |
| 20260906043603 | 18 | 185 | 4.8 | 17.7 | 0.00 | 0.41 | 0.00 | 76 | 1017.3 |
| 20260906043403 | 18 | 183 | 4.8 | 16.1 | 0.00 | 0.41 | 0.00 | 76 | 1017.3 |
| 20260906043203 | 18 | 185 | 4.8 | 16.1 | 0.00 | 0.43 | 0.00 | 76 | 1017.3 |
| 20260906043024 | 18 | 184 | 4.8 | 11.3 | 0.00 | 0.43 | 0.00 | 76 | 1017.3 |
| 20260906042803 | 18 | 182 | 4.8 | 11.3 | 0.00 | 0.46 | 0.00 | 76 | 1017.4 |
| 20260906042624 | 18 | 182 | 4.8 | 11.3 | 0.00 | 0.46 | 0.00 | 76 | 1017.4 |
| 20260906042403 | 18 | 182 | 4.8 | 9.7 | 0.00 | 0.46 | 0.00 | 76 | 1017.4 |
| 20260906042203 | 18 | 182 | 4.8 | 9.7 | 0.00 | 0.46 | 0.00 | 76 | 1017.4 |
| 20260906042003 | 18 | 180 | 4.8 | 9.7 | 0.00 | 0.46 | 0.00 | 76 | 1017.5 |
| 20260906041824 | 18 | 177 | 4.8 | 12.9 | 0.00 | 0.46 | 0.00 | 76 | 1017.5 |
| 20260906041603 | 18 | 175 | 4.8 | 12.9 | 0.00 | 0.46 | 0.00 | 76 | 1017.5 |
| 20260906041424 | 19 | 178 | 4.8 | 12.9 | 0.00 | 0.46 | 0.00 | 76 | 1017.5 |
| 20260906041203 | 19 | 179 | 4.8 | 12.9 | 0.00 | 0.46 | 0.00 | 77 | 1017.5 |
| 20260906041024 | 19 | 181 | 4.8 | 12.9 | 0.00 | 0.46 | 0.00 | 76 | 1017.5 |
| 20260906040803 | 19 | 184 | 4.8 | 12.9 | 0.00 | 0.46 | 0.00 | 77 | 1017.4 |
| 20260906040624 | 19 | 183 | 6.4 | 12.9 | 0.00 | 0.46 | 0.00 | 77 | 1017.4 |
| 20260906040424 | 19 | 181 | 4.8 | 12.9 | 0.00 | 0.46 | 0.00 | 76 | 1017.4 |
| 20260906040203 | 19 | 180 | 3.2 | 12.9 | 0.00 | 0.46 | 0.00 | 77 | 1017.4 |
| 20260906040004 | 19 | 178 | 3.2 | 12.9 | 0.00 | 0.46 | 0.00 | 77 | 1017.3 |
| 20260906035803 | 19 | 180 | 3.2 | 12.9 | 0.00 | 0.46 | 0.46 | 77 | 1017.2 |
| 20260906035603 | 19 | 184 | 3.2 | 12.9 | 0.00 | 0.46 | 0.46 | 77 | 1017.2 |
| 20260906035403 | 19 | 183 | 3.2 | 12.9 | 0.00 | 0.46 | 0.46 | 77 | 1017.2 |
| 20260906035203 | 19 | 173 | 3.2 | 12.9 | 0.00 | 0.46 | 0.46 | 77 | 1017.2 |
| 20260906035024 | 19 | 172 | 4.8 | 12.9 | 0.00 | 0.46 | 0.46 | 77 | 1017.2 |
| 20260906034824 | 19 | 170 | 4.8 | 12.9 | 0.00 | 0.46 | 0.46 | 77 | 1017.2 |
| 20260906034624 | 19 | 166 | 4.8 | 11.3 | 0.00 | 0.46 | 0.46 | 78 | 1017.3 |
| 20260906034403 | 19 | 168 | 4.8 | 11.3 | 0.00 | 0.46 | 0.46 | 78 | 1017.2 |
| 20260906034203 | 19 | 173 | 3.2 | 11.3 | 0.00 | 0.46 | 0.46 | 78 | 1017.2 |
| 20260906034003 | 19 | 173 | 3.2 | 8.0 | 0.00 | 0.46 | 0.46 | 78 | 1017.2 |
| 20260906033803 | 19 | 177 | 3.2 | 8.0 | 0.00 | 0.46 | 0.46 | 79 | 1017.1 |
| 20260906033603 | 19 | 178 | 3.2 | 8.0 | 0.00 | 0.46 | 0.46 | 79 | 1017.2 |
| 20260906033424 | 19 | 176 | 3.2 | 8.0 | 0.00 | 0.46 | 0.46 | 79 | 1017.1 |
| 20260906033203 | 19 | 177 | 3.2 | 8.0 | 0.00 | 0.46 | 0.46 | 79 | 1017.0 |
| 20260906033003 | 19 | 179 | 1.6 | 6.4 | 0.00 | 0.46 | 0.46 | 80 | 1017.1 |
| 20260906032803 | 19 | 175 | 1.6 | 6.4 | 0.00 | 0.46 | 0.46 | 80 | 1017.1 |
| 20260906032603 | 19 | 175 | 1.6 | 4.8 | 0.00 | 0.46 | 0.46 | 80 | 1017.1 |
| 20260906032424 | 19 | 175 | 1.6 | 4.8 | 0.00 | 0.46 | 0.46 | 80 | 1017.1 |
| 20260906032203 | 19 | 172 | 0.0 | 4.8 | 0.00 | 0.46 | 0.46 | 80 | 1017.0 |
| 20260906032003 | 19 | 163 | 0.0 | 4.8 | 0.00 | 0.46 | 0.46 | 80 | 1017.0 |
| 20260906031803 | 19 | 0 | 0.0 | 0.0 | 0.00 | 0.46 | 0.46 | 80 | 1017.0 |
| 20260906031603 | 19 | 0 | 0.0 | 0.0 | 0.00 | 0.46 | 0.46 | 80 | 1017.0 |
| 20260906031403 | 20 | 0 | 0.0 | 0.0 | 0.00 | 0.46 | 0.46 | 80 | 1017.0 |
| 20260906031203 | 20 | 0 | 0.0 | 0.0 | 0.00 | 0.46 | 0.46 | 80 | 1017.0 |
| 20260906031003 | 20 | 0 | 0.0 | 0.0 | 0.00 | 0.46 | 0.46 | 80 | 1017.0 |
| 20260906030803 | 20 | 0 | 0.0 | 0.0 | 0.00 | 0.46 | 0.46 | 81 | 1017.0 |
| 20260906030603 | 20 | 0 | 0.0 | 0.0 | 0.00 | 0.46 | 0.46 | 81 | 1016.9 |
| 20260906030403 | 20 | 0 | 0.0 | 0.0 | 0.00 | 0.46 | 0.46 | 81 | 1016.9 |
| 20260906030203 | 20 | 0 | 0.0 | 0.0 | 0.00 | 0.46 | 0.46 | 81 | 1016.9 |
| 20260906030003 | 20 | 0 | 0.0 | 0.0 | 0.00 | 0.46 | 0.46 | 81 | 1016.8 |
| 20260906025803 | 20 | 0 | 0.0 | 0.0 | 0.00 | 0.46 | 0.46 | 81 | 1016.7 |
| 20260906025603 | 20 | 0 | 0.0 | 0.0 | 0.00 | 0.46 | 0.46 | 81 | 1016.6 |
| 20260906025403 | 20 | 125 | 0.0 | 6.4 | 0.00 | 0.46 | 0.46 | 81 | 1016.6 |
| 20260906025224 | 20 | 125 | 0.0 | 6.4 | 0.00 | 0.46 | 0.46 | 81 | 1016.6 |
| 20260906025003 | 20 | 125 | 0.0 | 6.4 | 0.00 | 0.46 | 0.46 | 81 | 1016.6 |
| 20260906024804 | 20 | 125 | 0.0 | 6.4 | 0.00 | 0.46 | 0.46 | 81 | 1016.6 |
| 20260906024603 | 20 | 125 | 0.0 | 6.4 | 0.00 | 0.46 | 0.46 | 81 | 1016.6 |
| 20260906024403 | 20 | 0 | 0.0 | 0.0 | 0.00 | 0.46 | 0.46 | 81 | 1016.5 |
| 20260906024203 | 20 | 0 | 0.0 | 0.0 | 0.00 | 0.46 | 0.46 | 81 | 1016.5 |
| 20260906024003 | 20 | 0 | 0.0 | 0.0 | 0.00 | 0.46 | 0.46 | 81 | 1016.6 |
| 20260906023803 | 20 | 0 | 0.0 | 0.0 | 0.00 | 0.46 | 0.46 | 81 | 1016.5 |
| 20260906023603 | 20 | 0 | 0.0 | 0.0 | 0.00 | 0.46 | 0.46 | 81 | 1016.5 |
| 20260906023403 | 20 | 0 | 0.0 | 0.0 | 0.00 | 0.46 | 0.46 | 81 | 1016.6 |
| 20260906023225 | 20 | 0 | 0.0 | 0.0 | 0.00 | 0.46 | 0.46 | 81 | 1016.6 |
| 20260906023003 | 20 | 0 | 0.0 | 0.0 | 0.00 | 0.46 | 0.46 | 81 | 1016.6 |
| 20260906022803 | 20 | 0 | 0.0 | 0.0 | 0.00 | 0.46 | 0.46 | 81 | 1016.7 |
| 20260906022603 | 20 | 0 | 0.0 | 0.0 | 0.00 | 0.46 | 0.46 | 81 | 1016.6 |
| 20260906022424 | 20 | 0 | 0.0 | 0.0 | 0.00 | 0.46 | 0.46 | 80 | 1016.6 |
| 20260906022224 | 20 | 0 | 0.0 | 0.0 | 0.00 | 0.46 | 0.46 | 80 | 1016.6 |
| 20260906022024 | 20 | 0 | 0.0 | 0.0 | 0.00 | 0.46 | 0.46 | 81 | 1016.6 |
| 20260906021803 | 20 | 0 | 0.0 | 0.0 | 0.00 | 0.46 | 0.46 | 81 | 1016.6 |
| 20260906021603 | 20 | 0 | 0.0 | 0.0 | 0.00 | 0.46 | 0.46 | 81 | 1016.6 |
| 20260906021403 | 20 | 0 | 0.0 | 0.0 | 0.00 | 0.46 | 0.46 | 81 | 1016.6 |
| 20260906021203 | 20 | 0 | 0.0 | 0.0 | 0.00 | 0.46 | 0.46 | 80 | 1016.6 |
| 20260906021003 | 20 | 0 | 0.0 | 0.0 | 0.00 | 0.46 | 0.46 | 81 | 1016.7 |
| 20260906020803 | 20 | 0 | 0.0 | 0.0 | 0.00 | 0.46 | 0.46 | 81 | 1016.6 |
| 20260906020603 | 20 | 0 | 0.0 | 0.0 | 0.00 | 0.46 | 0.46 | 80 | 1016.6 |
| 20260906020403 | 20 | 0 | 0.0 | 0.0 | 0.00 | 0.46 | 0.46 | 80 | 1016.6 |
| 20260906020203 | 20 | 0 | 0.0 | 0.0 | 0.00 | 0.46 | 0.46 | 80 | 1016.6 |
| 20260906020024 | 20 | 0 | 0.0 | 0.0 | 0.00 | 0.46 | 0.46 | 80 | 1016.6 |
| 20260906015803 | 20 | 0 | 0.0 | 0.0 | 0.00 | 0.46 | 0.46 | 80 | 1016.5 |
| 20260906015624 | 20 | 0 | 0.0 | 0.0 | 0.00 | 0.46 | 0.46 | 79 | 1016.5 |
| 20260906015403 | 20 | 0 | 0.0 | 0.0 | 0.00 | 0.46 | 0.46 | 79 | 1016.4 |
| 20260906015203 | 20 | 0 | 0.0 | 0.0 | 0.00 | 0.46 | 0.46 | 79 | 1016.4 |
| 20260906015004 | 20 | 0 | 0.0 | 0.0 | 0.00 | 0.46 | 0.46 | 79 | 1016.4 |
| 20260906014803 | 20 | 0 | 0.0 | 0.0 | 0.00 | 0.46 | 0.46 | 79 | 1016.3 |
| 20260906014603 | 20 | 0 | 0.0 | 0.0 | 0.00 | 0.46 | 0.46 | 79 | 1016.4 |
| 20260906014403 | 20 | 0 | 0.0 | 0.0 | 0.00 | 0.46 | 0.46 | 79 | 1016.3 |
| 20260906014203 | 20 | 0 | 0.0 | 0.0 | 0.00 | 0.46 | 0.46 | 79 | 1016.4 |
| 20260906014003 | 20 | 0 | 0.0 | 0.0 | 0.00 | 0.46 | 0.46 | 79 | 1016.3 |
| 20260906013803 | 20 | 0 | 0.0 | 0.0 | 0.00 | 0.46 | 0.46 | 79 | 1016.3 |
| 20260906013624 | 20 | 0 | 0.0 | 0.0 | 0.00 | 0.46 | 0.46 | 79 | 1016.3 |
| 20260906013403 | 20 | 0 | 0.0 | 0.0 | 0.00 | 0.46 | 0.46 | 79 | 1016.3 |
| 20260906013203 | 20 | 0 | 0.0 | 0.0 | 0.00 | 0.46 | 0.46 | 79 | 1016.2 |
| 20260906013003 | 20 | 0 | 0.0 | 0.0 | 0.00 | 0.46 | 0.46 | 79 | 1016.2 |
| 20260906012803 | 20 | 0 | 0.0 | 0.0 | 0.00 | 0.46 | 0.46 | 79 | 1016.2 |
| 20260906012603 | 20 | 0 | 0.0 | 0.0 | 0.00 | 0.46 | 0.46 | 79 | 1016.1 |
| 20260906012403 | 20 | 0 | 0.0 | 0.0 | 0.00 | 0.46 | 0.46 | 79 | 1016.1 |
| 20260906012203 | 20 | 0 | 0.0 | 0.0 | 0.00 | 0.46 | 0.46 | 79 | 1016.0 |
| 20260906012003 | 21 | 0 | 0.0 | 0.0 | 0.00 | 0.46 | 0.46 | 79 | 1016.0 |
| 20260906011803 | 21 | 0 | 0.0 | 0.0 | 0.00 | 0.46 | 0.46 | 79 | 1016.0 |
| 20260906011624 | 21 | 0 | 0.0 | 0.0 | 0.00 | 0.46 | 0.46 | 79 | 1015.9 |
| 20260906011403 | 21 | 0 | 0.0 | 0.0 | 0.00 | 0.46 | 0.46 | 79 | 1015.9 |
| 20260906011203 | 21 | 0 | 0.0 | 0.0 | 0.00 | 0.46 | 0.46 | 79 | 1015.8 |
| 20260906011003 | 21 | 0 | 0.0 | 0.0 | 0.00 | 0.46 | 0.46 | 78 | 1015.8 |
| 20260906010803 | 21 | 0 | 0.0 | 0.0 | 0.00 | 0.46 | 0.46 | 79 | 1015.9 |
| 20260906010603 | 21 | 0 | 0.0 | 0.0 | 0.00 | 0.46 | 0.46 | 79 | 1015.9 |
| 20260906010403 | 21 | 0 | 0.0 | 0.0 | 0.00 | 0.46 | 0.46 | 79 | 1015.9 |
| 20260906010224 | 21 | 0 | 0.0 | 0.0 | 0.00 | 0.46 | 0.46 | 79 | 1015.9 |
| 20260906010003 | 21 | 0 | 0.0 | 0.0 | 0.00 | 0.46 | 0.46 | 79 | 1016.0 |
| 20260906005803 | 21 | 0 | 0.0 | 0.0 | 0.00 | 0.46 | 0.46 | 79 | 1016.0 |
| 20260906005603 | 21 | 0 | 0.0 | 0.0 | 0.00 | 0.46 | 0.46 | 79 | 1015.9 |
| 20260906005403 | 21 | 0 | 0.0 | 0.0 | 0.00 | 0.46 | 0.46 | 79 | 1015.9 |
| 20260906005203 | 21 | 0 | 0.0 | 0.0 | 0.00 | 0.46 | 0.46 | 79 | 1015.8 |
| 20260906005003 | 21 | 0 | 0.0 | 0.0 | 0.00 | 0.46 | 0.46 | 79 | 1015.8 |
| 20260906004824 | 21 | 0 | 0.0 | 0.0 | 0.00 | 0.46 | 0.46 | 79 | 1015.8 |
| 20260906004603 | 21 | 0 | 0.0 | 0.0 | 0.00 | 0.46 | 0.46 | 79 | 1015.8 |
| 20260906004403 | 21 | 0 | 0.0 | 0.0 | 0.00 | 0.46 | 0.46 | 79 | 1015.8 |
| 20260906004203 | 21 | 0 | 0.0 | 0.0 | 0.00 | 0.46 | 0.46 | 78 | 1015.8 |
| 20260906004003 | 21 | 0 | 0.0 | 0.0 | 0.00 | 0.46 | 0.46 | 79 | 1015.8 |
| 20260906003803 | 21 | 0 | 0.0 | 0.0 | 0.00 | 0.46 | 0.46 | 79 | 1015.8 |
| 20260906003603 | 21 | 0 | 0.0 | 0.0 | 0.00 | 0.46 | 0.46 | 78 | 1015.8 |
| 20260906003403 | 21 | 0 | 0.0 | 0.0 | 0.00 | 0.46 | 0.46 | 78 | 1015.8 |
| 20260906003203 | 21 | 0 | 0.0 | 0.0 | 0.00 | 0.46 | 0.46 | 79 | 1015.8 |
| 20260906003003 | 21 | 0 | 0.0 | 0.0 | 0.00 | 0.46 | 0.46 | 78 | 1015.9 |
| 20260906002803 | 21 | 0 | 0.0 | 0.0 | 0.00 | 0.46 | 0.46 | 79 | 1015.9 |
| 20260906002603 | 21 | 0 | 0.0 | 0.0 | 0.00 | 0.46 | 0.46 | 78 | 1015.8 |
| 20260906002424 | 21 | 0 | 0.0 | 0.0 | 0.00 | 0.46 | 0.46 | 79 | 1015.8 |
| 20260906002203 | 21 | 0 | 0.0 | 0.0 | 0.00 | 0.46 | 0.46 | 79 | 1015.7 |
| 20260906002003 | 21 | 0 | 0.0 | 0.0 | 0.00 | 0.46 | 0.46 | 79 | 1015.7 |
| 20260906001803 | 21 | 0 | 0.0 | 0.0 | 0.00 | 0.46 | 0.46 | 79 | 1015.8 |
| 20260906001603 | 21 | 0 | 0.0 | 0.0 | 0.00 | 0.46 | 0.46 | 79 | 1015.8 |
| 20260906001403 | 21 | 0 | 0.0 | 0.0 | 0.00 | 0.46 | 0.46 | 79 | 1015.7 |
| 20260906001203 | 21 | 0 | 0.0 | 0.0 | 0.00 | 0.46 | 0.46 | 79 | 1015.7 |
| 20260906001024 | 21 | 0 | 0.0 | 0.0 | 0.00 | 0.46 | 0.46 | 79 | 1015.6 |
| 20260906000803 | 21 | 0 | 0.0 | 0.0 | 0.00 | 0.46 | 0.46 | 79 | 1015.7 |
| 20260906000603 | 21 | 0 | 0.0 | 0.0 | 0.00 | 0.46 | 0.46 | 79 | 1015.7 |
| 20260906000403 | 21 | 0 | 0.0 | 0.0 | 0.00 | 0.46 | 0.46 | 79 | 1015.7 |
| 20260906000204 | 21 | 0 | 0.0 | 0.0 | 0.00 | 0.46 | 0.46 | 79 | 1015.7 |
| 20260906000003 | 21 | 0 | 0.0 | 0.0 | 0.00 | 0.46 | 0.46 | 79 | 1015.8 |
| 20260905235803 | 21 | 0 | 0.0 | 0.0 | 0.00 | 0.46 | 0.46 | 79 | 1015.7 |
| 20260905235603 | 21 | 0 | 0.0 | 0.0 | 0.00 | 0.46 | 0.46 | 79 | 1015.7 |
| 20260905235403 | 21 | 0 | 0.0 | 0.0 | 0.00 | 0.46 | 0.46 | 79 | 1015.7 |
| 20260905235204 | 21 | 0 | 0.0 | 0.0 | 0.00 | 0.46 | 0.46 | 79 | 1015.6 |
| 20260905235003 | 21 | 0 | 0.0 | 0.0 | 0.00 | 0.46 | 0.46 | 79 | 1015.6 |
| 20260905234803 | 21 | 0 | 0.0 | 0.0 | 0.00 | 0.46 | 0.46 | 79 | 1015.6 |
| 20260905234603 | 21 | 0 | 0.0 | 0.0 | 0.00 | 0.46 | 0.46 | 79 | 1015.6 |
| 20260905234403 | 21 | 0 | 0.0 | 0.0 | 0.00 | 0.46 | 0.46 | 79 | 1015.6 |
| 20260905234203 | 21 | 0 | 0.0 | 0.0 | 0.00 | 0.46 | 0.46 | 79 | 1015.7 |
| 20260905234024 | 21 | 0 | 0.0 | 0.0 | 0.00 | 0.46 | 0.46 | 79 | 1015.7 |
| 20260905233803 | 21 | 0 | 0.0 | 0.0 | 0.00 | 0.46 | 0.46 | 79 | 1015.7 |
| 20260905233603 | 21 | 0 | 0.0 | 0.0 | 0.00 | 0.46 | 0.46 | 79 | 1015.7 |
| 20260905233424 | 21 | 0 | 0.0 | 0.0 | 0.00 | 0.46 | 0.46 | 79 | 1015.8 |
| 20260905233203 | 21 | 0 | 0.0 | 0.0 | 0.00 | 0.46 | 0.46 | 79 | 1015.8 |
| 20260905233024 | 21 | 0 | 0.0 | 0.0 | 0.00 | 0.46 | 0.46 | 79 | 1015.7 |
| 20260905232803 | 21 | 0 | 0.0 | 0.0 | 0.00 | 0.46 | 0.46 | 79 | 1015.7 |
| 20260905232624 | 21 | 0 | 0.0 | 0.0 | 0.00 | 0.46 | 0.46 | 79 | 1015.8 |
| 20260905232203 | 21 | 0 | 0.0 | 0.0 | 0.00 | 0.46 | 0.46 | 79 | 1015.8 |
| 20260905232003 | 21 | 0 | 0.0 | 0.0 | 0.00 | 0.46 | 0.46 | 79 | 1015.8 |
| 20260905231803 | 21 | 0 | 0.0 | 0.0 | 0.00 | 0.46 | 0.46 | 79 | 1015.7 |
| 20260905231624 | 21 | 0 | 0.0 | 0.0 | 0.00 | 0.46 | 0.46 | 79 | 1015.7 |
| 20260905231424 | 21 | 0 | 0.0 | 0.0 | 0.00 | 0.46 | 0.46 | 79 | 1015.6 |
| 20260905231203 | 21 | 0 | 0.0 | 0.0 | 0.00 | 0.46 | 0.46 | 79 | 1015.6 |
| 20260905231003 | 21 | 0 | 0.0 | 0.0 | 0.00 | 0.46 | 0.46 | 78 | 1015.6 |
| 20260905230803 | 21 | 0 | 0.0 | 0.0 | 0.00 | 0.46 | 0.46 | 79 | 1015.5 |
| 20260905230603 | 21 | 0 | 0.0 | 0.0 | 0.00 | 0.46 | 0.46 | 78 | 1015.5 |
| 20260905230403 | 21 | 0 | 0.0 | 0.0 | 0.00 | 0.46 | 0.46 | 78 | 1015.5 |
| 20260905230225 | 21 | 0 | 0.0 | 0.0 | 0.00 | 0.46 | 0.46 | 78 | 1015.5 |
| 20260905230024 | 21 | 0 | 0.0 | 0.0 | 0.00 | 0.46 | 0.46 | 78 | 1015.5 |
| 20260905225803 | 21 | 183 | 0.0 | 1.6 | 0.00 | 0.46 | 0.46 | 79 | 1015.5 |
| 20260905225603 | 21 | 183 | 0.0 | 1.6 | 0.00 | 0.46 | 0.46 | 78 | 1015.5 |
| 20260905225403 | 21 | 183 | 0.0 | 1.6 | 0.00 | 0.46 | 0.46 | 79 | 1015.5 |
| 20260905225203 | 21 | 185 | 0.0 | 4.8 | 0.00 | 0.46 | 0.46 | 79 | 1015.5 |
| 20260905225003 | 21 | 185 | 1.6 | 4.8 | 0.00 | 0.46 | 0.46 | 78 | 1015.5 |
| 20260905224803 | 21 | 185 | 1.6 | 4.8 | 0.00 | 0.46 | 0.46 | 79 | 1015.5 |
| 20260905224603 | 21 | 185 | 1.6 | 4.8 | 0.00 | 0.46 | 0.46 | 78 | 1015.5 |
| 20260905224403 | 21 | 185 | 1.6 | 4.8 | 0.00 | 0.46 | 0.46 | 78 | 1015.5 |
| 20260905224203 | 21 | 185 | 1.6 | 4.8 | 0.00 | 0.46 | 0.46 | 78 | 1015.5 |
| 20260905224004 | 21 | 184 | 0.0 | 4.8 | 0.00 | 0.46 | 0.46 | 78 | 1015.4 |
| 20260905223824 | 21 | 184 | 0.0 | 4.8 | 0.00 | 0.46 | 0.46 | 78 | 1015.4 |
| 20260905223603 | 21 | 184 | 0.0 | 3.2 | 0.00 | 0.46 | 0.46 | 78 | 1015.4 |
| 20260905223403 | 21 | 183 | 1.6 | 6.4 | 0.00 | 0.46 | 0.46 | 78 | 1015.4 |
| 20260905223224 | 21 | 184 | 1.6 | 8.0 | 0.00 | 0.46 | 0.46 | 78 | 1015.4 |
| 20260905223003 | 21 | 185 | 1.6 | 8.0 | 0.00 | 0.46 | 0.46 | 78 | 1015.5 |
| 20260905222803 | 21 | 185 | 3.2 | 8.0 | 0.00 | 0.46 | 0.46 | 78 | 1015.5 |
| 20260905222603 | 21 | 185 | 3.2 | 8.0 | 0.00 | 0.46 | 0.46 | 78 | 1015.4 |
| 20260905222403 | 21 | 186 | 1.6 | 8.0 | 0.00 | 0.46 | 0.46 | 77 | 1015.4 |
| 20260905222203 | 21 | 187 | 1.6 | 8.0 | 0.00 | 0.46 | 0.46 | 78 | 1015.4 |
| 20260905222003 | 21 | 187 | 3.2 | 8.0 | 0.00 | 0.46 | 0.46 | 77 | 1015.5 |
| 20260905221803 | 21 | 186 | 3.2 | 8.0 | 0.00 | 0.46 | 0.46 | 77 | 1015.5 |
| 20260905221603 | 21 | 183 | 3.2 | 9.7 | 0.00 | 0.46 | 0.46 | 77 | 1015.5 |
| 20260905221403 | 21 | 180 | 3.2 | 9.7 | 0.00 | 0.46 | 0.46 | 77 | 1015.4 |
| 20260905221224 | 21 | 179 | 3.2 | 9.7 | 0.00 | 0.46 | 0.46 | 77 | 1015.5 |
| 20260905221024 | 22 | 177 | 3.2 | 9.7 | 0.00 | 0.46 | 0.46 | 76 | 1015.5 |
| 20260905220803 | 22 | 176 | 4.8 | 12.9 | 0.00 | 0.46 | 0.46 | 76 | 1015.4 |
| 20260905220603 | 22 | 180 | 4.8 | 14.5 | 0.00 | 0.46 | 0.46 | 76 | 1015.4 |
| 20260905220424 | 22 | 182 | 4.8 | 14.5 | 0.00 | 0.46 | 0.46 | 76 | 1015.4 |
| 20260905220224 | 22 | 183 | 4.8 | 14.5 | 0.00 | 0.46 | 0.46 | 75 | 1015.3 |
| 20260905220003 | 22 | 181 | 6.4 | 14.5 | 0.00 | 0.46 | 0.46 | 75 | 1015.3 |
| 20260905215803 | 22 | 183 | 4.8 | 14.5 | 0.00 | 0.46 | 0.46 | 75 | 1015.3 |
| 20260905215624 | 22 | 181 | 4.8 | 12.9 | 0.00 | 0.46 | 0.46 | 75 | 1015.3 |
| 20260905215403 | 22 | 179 | 6.4 | 12.9 | 0.00 | 0.46 | 0.46 | 75 | 1015.3 |
| 20260905215224 | 22 | 179 | 6.4 | 12.9 | 0.00 | 0.46 | 0.46 | 75 | 1015.2 |
| 20260905215003 | 22 | 182 | 4.8 | 12.9 | 0.00 | 0.46 | 0.46 | 75 | 1015.2 |
| 20260905214803 | 22 | 182 | 4.8 | 11.3 | 0.00 | 0.46 | 0.46 | 74 | 1015.1 |
| 20260905214624 | 22 | 181 | 4.8 | 11.3 | 0.00 | 0.46 | 0.46 | 74 | 1015.2 |
| 20260905214403 | 22 | 184 | 6.4 | 11.3 | 0.00 | 0.46 | 0.46 | 74 | 1015.1 |
| 20260905214203 | 22 | 183 | 6.4 | 14.5 | 0.00 | 0.46 | 0.46 | 74 | 1015.1 |
| 20260905214003 | 22 | 181 | 6.4 | 14.5 | 0.00 | 0.46 | 0.46 | 74 | 1015.1 |
| 20260905213803 | 22 | 180 | 6.4 | 14.5 | 0.00 | 0.46 | 0.46 | 74 | 1015.1 |
| 20260905213603 | 22 | 180 | 6.4 | 14.5 | 0.00 | 0.46 | 0.46 | 74 | 1015.1 |
| 20260905213403 | 22 | 180 | 6.4 | 16.1 | 0.00 | 0.46 | 0.46 | 73 | 1015.1 |
| 20260905213203 | 22 | 177 | 6.4 | 16.1 | 0.00 | 0.46 | 0.46 | 73 | 1015.0 |
| 20260905213003 | 22 | 176 | 6.4 | 16.1 | 0.00 | 0.46 | 0.46 | 73 | 1015.1 |
| 20260905212803 | 22 | 174 | 6.4 | 16.1 | 0.00 | 0.46 | 0.46 | 74 | 1015.0 |
| 20260905212603 | 22 | 174 | 6.4 | 16.1 | 0.00 | 0.46 | 0.46 | 73 | 1015.0 |
| 20260905212403 | 23 | 169 | 6.4 | 16.1 | 0.00 | 0.46 | 0.46 | 73 | 1015.0 |
| 20260905212203 | 23 | 171 | 8.0 | 16.1 | 0.00 | 0.46 | 0.46 | 73 | 1015.0 |
| 20260905212003 | 23 | 173 | 8.0 | 16.1 | 0.00 | 0.46 | 0.46 | 73 | 1015.0 |
| 20260905211803 | 23 | 173 | 8.0 | 16.1 | 0.00 | 0.46 | 0.46 | 73 | 1014.9 |
| 20260905211603 | 23 | 174 | 8.0 | 20.9 | 0.00 | 0.46 | 0.46 | 73 | 1014.9 |
| 20260905211403 | 23 | 176 | 8.0 | 20.9 | 0.00 | 0.46 | 0.46 | 73 | 1015.0 |
| 20260905211203 | 23 | 176 | 8.0 | 20.9 | 0.00 | 0.46 | 0.46 | 73 | 1014.9 |
| 20260905211003 | 23 | 176 | 8.0 | 20.9 | 0.00 | 0.46 | 0.46 | 73 | 1014.9 |
| 20260905210803 | 23 | 177 | 8.0 | 20.9 | 0.00 | 0.46 | 0.46 | 73 | 1014.9 |
| 20260905210624 | 23 | 178 | 8.0 | 17.7 | 0.00 | 0.46 | 0.46 | 73 | 1014.8 |
| 20260905210403 | 23 | 175 | 9.7 | 17.7 | 0.00 | 0.46 | 0.46 | 73 | 1014.8 |
| 20260905210203 | 23 | 176 | 9.7 | 17.7 | 0.00 | 0.46 | 0.46 | 74 | 1014.8 |
| 20260905210004 | 23 | 174 | 9.7 | 17.7 | 0.00 | 0.46 | 0.46 | 74 | 1014.8 |
| 20260905205824 | 23 | 176 | 9.7 | 22.5 | 0.00 | 0.46 | 0.46 | 74 | 1014.8 |
| 20260905205603 | 23 | 174 | 9.7 | 22.5 | 0.00 | 0.46 | 0.46 | 74 | 1014.8 |
| 20260905205403 | 23 | 176 | 9.7 | 22.5 | 0.00 | 0.46 | 0.46 | 73 | 1014.8 |
| 20260905205203 | 23 | 177 | 9.7 | 22.5 | 0.00 | 0.46 | 0.46 | 74 | 1014.9 |
| 20260905205003 | 23 | 178 | 9.7 | 22.5 | 0.00 | 0.46 | 0.46 | 73 | 1014.9 |
| 20260905204803 | 23 | 176 | 9.7 | 22.5 | 0.00 | 0.46 | 0.46 | 74 | 1014.9 |
| 20260905204603 | 23 | 176 | 9.7 | 22.5 | 0.00 | 0.46 | 0.46 | 74 | 1014.9 |
| 20260905204403 | 23 | 177 | 9.7 | 22.5 | 0.00 | 0.46 | 0.46 | 73 | 1014.9 |
| 20260905204203 | 23 | 176 | 8.0 | 22.5 | 0.00 | 0.46 | 0.46 | 74 | 1014.9 |
| 20260905204003 | 23 | 174 | 8.0 | 22.5 | 0.00 | 0.46 | 0.46 | 73 | 1014.9 |
| 20260905203824 | 23 | 176 | 8.0 | 14.5 | 0.00 | 0.46 | 0.46 | 73 | 1014.9 |
| 20260905203603 | 23 | 172 | 8.0 | 14.5 | 0.00 | 0.46 | 0.46 | 73 | 1014.9 |
| 20260905203403 | 23 | 173 | 8.0 | 16.1 | 0.00 | 0.46 | 0.46 | 73 | 1014.9 |
| 20260905203224 | 23 | 172 | 8.0 | 16.1 | 0.00 | 0.46 | 0.46 | 74 | 1014.9 |
| 20260905203024 | 23 | 175 | 8.0 | 16.1 | 0.00 | 0.46 | 0.46 | 73 | 1014.9 |
| 20260905202824 | 23 | 175 | 6.4 | 16.1 | 0.00 | 0.46 | 0.46 | 73 | 1014.9 |
| 20260905202603 | 23 | 179 | 6.4 | 16.1 | 0.00 | 0.46 | 0.46 | 73 | 1015.0 |
| 20260905202403 | 23 | 178 | 4.8 | 12.9 | 0.00 | 0.46 | 0.46 | 74 | 1014.9 |
| 20260905202203 | 23 | 177 | 4.8 | 11.3 | 0.00 | 0.46 | 0.46 | 74 | 1015.0 |
| 20260905202003 | 23 | 177 | 4.8 | 11.3 | 0.00 | 0.46 | 0.46 | 74 | 1014.9 |
| 20260905201803 | 23 | 175 | 6.4 | 14.5 | 0.00 | 0.46 | 0.46 | 74 | 1014.9 |
| 20260905201603 | 23 | 177 | 8.0 | 17.7 | 0.00 | 0.46 | 0.46 | 74 | 1014.9 |
| 20260905201403 | 23 | 174 | 8.0 | 17.7 | 0.00 | 0.46 | 0.46 | 73 | 1014.9 |
| 20260905201203 | 23 | 174 | 8.0 | 17.7 | 0.00 | 0.46 | 0.46 | 73 | 1015.0 |
| 20260905201003 | 23 | 174 | 8.0 | 17.7 | 0.00 | 0.46 | 0.46 | 73 | 1015.0 |
| 20260905200803 | 24 | 173 | 8.0 | 17.7 | 0.00 | 0.46 | 0.46 | 73 | 1014.9 |
| 20260905200603 | 24 | 172 | 8.0 | 14.5 | 0.00 | 0.46 | 0.46 | 73 | 1015.0 |
| 20260905200403 | 24 | 173 | 6.4 | 12.9 | 0.00 | 0.46 | 0.46 | 73 | 1015.0 |
| 20260905200203 | 24 | 174 | 6.4 | 12.9 | 0.00 | 0.46 | 0.46 | 73 | 1015.0 |
| 20260905200003 | 24 | 173 | 6.4 | 12.9 | 0.00 | 0.46 | 0.46 | 73 | 1015.0 |
| 20260905195803 | 24 | 175 | 6.4 | 12.9 | 0.00 | 0.46 | 0.46 | 73 | 1015.0 |
| 20260905195603 | 24 | 175 | 6.4 | 12.9 | 0.00 | 0.46 | 0.46 | 73 | 1014.9 |
| 20260905195403 | 24 | 176 | 6.4 | 16.1 | 0.00 | 0.46 | 0.46 | 73 | 1014.9 |
| 20260905195203 | 24 | 175 | 6.4 | 16.1 | 0.00 | 0.46 | 0.46 | 73 | 1014.9 |
| 20260905195004 | 24 | 175 | 6.4 | 16.1 | 0.00 | 0.46 | 0.46 | 72 | 1014.9 |
| 20260905194803 | 24 | 172 | 6.4 | 16.1 | 0.00 | 0.46 | 0.46 | 72 | 1015.0 |
| 20260905194603 | 24 | 170 | 6.4 | 16.1 | 0.00 | 0.46 | 0.46 | 72 | 1015.0 |
| 20260905194403 | 24 | 170 | 6.4 | 11.3 | 0.00 | 0.46 | 0.46 | 72 | 1015.0 |
| 20260905194203 | 24 | 173 | 6.4 | 11.3 | 0.00 | 0.46 | 0.46 | 72 | 1014.9 |
| 20260905194003 | 24 | 173 | 6.4 | 11.3 | 0.00 | 0.46 | 0.46 | 72 | 1014.9 |
| 20260905193803 | 24 | 180 | 6.4 | 16.1 | 0.00 | 0.46 | 0.46 | 73 | 1014.9 |
| 20260905193603 | 24 | 180 | 6.4 | 16.1 | 0.00 | 0.46 | 0.46 | 73 | 1014.9 |
| 20260905193403 | 24 | 182 | 6.4 | 16.1 | 0.00 | 0.46 | 0.46 | 72 | 1014.9 |
| 20260905193203 | 24 | 183 | 6.4 | 16.1 | 0.00 | 0.46 | 0.46 | 72 | 1014.9 |
| 20260905193024 | 24 | 184 | 6.4 | 16.1 | 0.00 | 0.46 | 0.46 | 73 | 1014.9 |
| 20260905192803 | 24 | 183 | 6.4 | 11.3 | 0.00 | 0.46 | 0.46 | 73 | 1014.9 |
| 20260905192603 | 24 | 184 | 6.4 | 11.3 | 0.00 | 0.46 | 0.46 | 73 | 1014.9 |
| 20260905192403 | 24 | 181 | 6.4 | 9.7 | 0.00 | 0.46 | 0.46 | 73 | 1015.0 |
| 20260905192203 | 24 | 180 | 4.8 | 9.7 | 0.00 | 0.46 | 0.46 | 73 | 1015.0 |
| 20260905192003 | 24 | 179 | 4.8 | 9.7 | 0.00 | 0.46 | 0.46 | 73 | 1015.0 |
| 20260905191803 | 24 | 179 | 4.8 | 11.3 | 0.00 | 0.46 | 0.46 | 73 | 1015.0 |
| 20260905191603 | 24 | 178 | 4.8 | 11.3 | 0.00 | 0.46 | 0.46 | 73 | 1015.0 |
| 20260905191403 | 24 | 179 | 6.4 | 11.3 | 0.00 | 0.46 | 0.46 | 74 | 1015.1 |
| 20260905191203 | 24 | 179 | 6.4 | 11.3 | 0.00 | 0.46 | 0.46 | 73 | 1015.1 |
| 20260905191003 | 24 | 180 | 8.0 | 16.1 | 0.00 | 0.46 | 0.46 | 73 | 1015.1 |
| 20260905190803 | 24 | 180 | 8.0 | 16.1 | 0.00 | 0.46 | 0.46 | 73 | 1015.0 |
| 20260905190603 | 24 | 180 | 8.0 | 16.1 | 0.00 | 0.46 | 0.46 | 73 | 1015.0 |
| 20260905190403 | 24 | 181 | 8.0 | 16.1 | 0.00 | 0.46 | 0.46 | 73 | 1015.0 |
| 20260905190203 | 24 | 182 | 8.0 | 16.1 | 0.00 | 0.46 | 0.46 | 72 | 1015.0 |
| 20260905190003 | 24 | 180 | 8.0 | 14.5 | 0.00 | 0.46 | 0.46 | 73 | 1015.0 |
| 20260905185824 | 24 | 178 | 6.4 | 14.5 | 0.00 | 0.46 | 0.46 | 73 | 1015.0 |
| 20260905185603 | 25 | 177 | 6.4 | 14.5 | 0.00 | 0.46 | 0.46 | 73 | 1015.0 |
| 20260905185403 | 25 | 176 | 6.4 | 12.9 | 0.00 | 0.46 | 0.46 | 72 | 1015.0 |
| 20260905185203 | 25 | 174 | 6.4 | 12.9 | 0.00 | 0.46 | 0.46 | 73 | 1015.0 |
| 20260905185003 | 25 | 175 | 6.4 | 12.9 | 0.00 | 0.46 | 0.46 | 73 | 1015.0 |
| 20260905184803 | 25 | 178 | 6.4 | 14.5 | 0.00 | 0.46 | 0.46 | 72 | 1015.0 |
| 20260905184603 | 25 | 179 | 6.4 | 14.5 | 0.00 | 0.46 | 0.46 | 72 | 1015.0 |
| 20260905184403 | 25 | 179 | 6.4 | 14.5 | 0.00 | 0.46 | 0.46 | 72 | 1015.0 |
| 20260905184203 | 25 | 181 | 4.8 | 14.5 | 0.00 | 0.46 | 0.46 | 72 | 1015.0 |
| 20260905184003 | 25 | 182 | 4.8 | 14.5 | 0.00 | 0.46 | 0.46 | 71 | 1015.0 |
| 20260905183803 | 25 | 184 | 4.8 | 8.0 | 0.00 | 0.46 | 0.46 | 71 | 1015.0 |
| 20260905183603 | 25 | 183 | 3.2 | 8.0 | 0.00 | 0.46 | 0.46 | 71 | 1015.0 |
| 20260905183424 | 25 | 182 | 3.2 | 8.0 | 0.00 | 0.46 | 0.46 | 72 | 1015.0 |
| 20260905183203 | 25 | 180 | 4.8 | 8.0 | 0.00 | 0.46 | 0.46 | 71 | 1015.0 |
| 20260905183003 | 25 | 180 | 4.8 | 11.3 | 0.00 | 0.46 | 0.46 | 71 | 1015.0 |
| 20260905182803 | 25 | 172 | 4.8 | 11.3 | 0.00 | 0.46 | 0.46 | 71 | 1015.0 |
| 20260905182603 | 25 | 172 | 6.4 | 11.3 | 0.00 | 0.46 | 0.46 | 71 | 1015.0 |
| 20260905182424 | 25 | 172 | 6.4 | 11.3 | 0.00 | 0.46 | 0.46 | 71 | 1015.0 |
| 20260905182203 | 25 | 173 | 6.4 | 11.3 | 0.00 | 0.46 | 0.46 | 70 | 1015.0 |
| 20260905182003 | 25 | 168 | 6.4 | 11.3 | 0.00 | 0.46 | 0.46 | 70 | 1015.0 |
| 20260905181803 | 25 | 174 | 4.8 | 11.3 | 0.00 | 0.46 | 0.46 | 70 | 1015.0 |
| 20260905181603 | 25 | 176 | 4.8 | 11.3 | 0.00 | 0.46 | 0.46 | 70 | 1015.1 |
| 20260905181403 | 25 | 178 | 3.2 | 9.7 | 0.00 | 0.46 | 0.46 | 69 | 1015.1 |
| 20260905181203 | 25 | 178 | 3.2 | 9.7 | 0.00 | 0.46 | 0.46 | 70 | 1015.1 |
| 20260905181024 | 25 | 181 | 3.2 | 8.0 | 0.00 | 0.46 | 0.46 | 69 | 1015.1 |
| 20260905180824 | 25 | 175 | 3.2 | 8.0 | 0.00 | 0.46 | 0.46 | 69 | 1015.0 |
| 20260905180624 | 25 | 173 | 3.2 | 12.9 | 0.00 | 0.46 | 0.46 | 68 | 1015.0 |
| 20260905180403 | 25 | 171 | 4.8 | 12.9 | 0.00 | 0.46 | 0.46 | 68 | 1015.0 |
| 20260905180203 | 25 | 170 | 4.8 | 12.9 | 0.00 | 0.48 | 0.46 | 69 | 1015.0 |
| 20260905180004 | 26 | 173 | 4.8 | 12.9 | 0.00 | 0.48 | 0.46 | 69 | 1015.0 |
| 20260905175803 | 26 | 174 | 3.2 | 12.9 | 0.00 | 0.48 | 0.46 | 69 | 1015.0 |
| 20260905175603 | 26 | 181 | 1.6 | 11.3 | 0.00 | 0.48 | 0.46 | 69 | 1014.9 |
| 20260905175404 | 26 | 184 | 1.6 | 6.4 | 0.00 | 0.48 | 0.46 | 68 | 1015.0 |
| 20260905175203 | 26 | 162 | 1.6 | 4.8 | 0.00 | 0.48 | 0.46 | 69 | 1015.0 |
| 20260905175003 | 26 | 141 | 1.6 | 4.8 | 0.00 | 0.48 | 0.46 | 69 | 1015.1 |
| 20260905174803 | 25 | 134 | 1.6 | 4.8 | 0.00 | 0.48 | 0.46 | 69 | 1015.0 |
| 20260905174603 | 25 | 138 | 3.2 | 8.0 | 0.00 | 0.48 | 0.46 | 70 | 1015.0 |
| 20260905174403 | 25 | 148 | 3.2 | 9.7 | 0.00 | 0.48 | 0.46 | 71 | 1015.0 |
| 20260905174203 | 25 | 155 | 3.2 | 9.7 | 0.00 | 0.48 | 0.46 | 71 | 1015.0 |
| 20260905174003 | 25 | 166 | 3.2 | 9.7 | 0.00 | 0.48 | 0.46 | 70 | 1014.9 |
| 20260905173803 | 25 | 175 | 4.8 | 11.3 | 0.00 | 0.48 | 0.46 | 70 | 1015.0 |
| 20260905173603 | 25 | 180 | 3.2 | 11.3 | 0.00 | 0.48 | 0.46 | 70 | 1015.0 |
| 20260905173403 | 25 | 181 | 3.2 | 11.3 | 0.00 | 0.48 | 0.46 | 70 | 1015.0 |
| 20260905173203 | 25 | 180 | 3.2 | 11.3 | 0.00 | 0.48 | 0.46 | 69 | 1015.1 |
| 20260905173003 | 25 | 180 | 1.6 | 11.3 | 0.00 | 0.48 | 0.46 | 69 | 1015.1 |
| 20260905172803 | 25 | 187 | 0.0 | 6.4 | 0.00 | 0.48 | 0.46 | 69 | 1015.2 |
| 20260905172603 | 25 | 184 | 0.0 | 4.8 | 0.00 | 0.48 | 0.46 | 69 | 1015.2 |
| 20260905172403 | 25 | 166 | 1.6 | 6.4 | 0.00 | 0.48 | 0.46 | 70 | 1015.3 |
| 20260905172224 | 25 | 170 | 1.6 | 8.0 | 0.00 | 0.48 | 0.46 | 69 | 1015.3 |
| 20260905172003 | 25 | 171 | 1.6 | 8.0 | 0.00 | 0.48 | 0.46 | 69 | 1015.3 |
| 20260905171803 | 25 | 201 | 1.6 | 8.0 | 0.00 | 0.48 | 0.46 | 69 | 1015.3 |
| 20260905171603 | 25 | 257 | 1.6 | 8.0 | 0.00 | 0.48 | 0.46 | 69 | 1015.3 |
| 20260905171403 | 25 | 277 | 1.6 | 8.0 | 0.00 | 0.51 | 0.46 | 70 | 1015.3 |
| 20260905171203 | 25 | 287 | 1.6 | 8.0 | 0.00 | 0.51 | 0.46 | 70 | 1015.3 |
| 20260905171024 | 25 | 284 | 1.6 | 8.0 | 0.00 | 0.51 | 0.46 | 70 | 1015.3 |
| 20260905170803 | 25 | 258 | 1.6 | 8.0 | 0.00 | 0.51 | 0.46 | 71 | 1015.3 |
| 20260905170603 | 25 | 214 | 1.6 | 8.0 | 0.00 | 0.51 | 0.46 | 71 | 1015.3 |
| 20260905170403 | 25 | 218 | 1.6 | 8.0 | 0.00 | 0.51 | 0.46 | 71 | 1015.4 |
| 20260905170203 | 25 | 188 | 3.2 | 8.0 | 0.00 | 0.53 | 0.46 | 72 | 1015.4 |
| 20260905170003 | 25 | 183 | 3.2 | 8.0 | 0.00 | 0.56 | 0.46 | 71 | 1015.4 |
| 20260905165803 | 25 | 225 | 3.2 | 6.4 | 0.00 | 0.61 | 0.46 | 72 | 1015.4 |
| 20260905165603 | 25 | 234 | 3.2 | 6.4 | 0.00 | 0.81 | 0.46 | 72 | 1015.3 |
| 20260905165424 | 25 | 258 | 3.2 | 8.0 | 0.00 | 0.94 | 0.46 | 72 | 1015.3 |
| 20260905165224 | 24 | 293 | 1.6 | 8.0 | 0.00 | 0.97 | 0.46 | 72 | 1015.3 |
| 20260905165003 | 24 | 291 | 1.6 | 8.0 | 0.00 | 1.07 | 0.46 | 74 | 1015.4 |
| 20260905164803 | 24 | 282 | 1.6 | 8.0 | 0.00 | 1.12 | 0.46 | 74 | 1015.4 |
| 20260905164603 | 23 | 274 | 1.6 | 8.0 | 0.00 | 1.12 | 0.46 | 75 | 1015.4 |
| 20260905164403 | 23 | 223 | 1.6 | 6.4 | 0.00 | 1.12 | 0.46 | 75 | 1015.4 |
| 20260905164203 | 23 | 196 | 1.6 | 11.3 | 0.00 | 1.12 | 0.46 | 74 | 1015.4 |
| 20260905164024 | 23 | 194 | 3.2 | 11.3 | 0.00 | 1.12 | 0.46 | 75 | 1015.4 |
| 20260905163803 | 23 | 181 | 3.2 | 11.3 | 0.00 | 1.12 | 0.46 | 75 | 1015.3 |
| 20260905163603 | 23 | 181 | 3.2 | 11.3 | 0.00 | 1.12 | 0.46 | 75 | 1015.3 |
| 20260905163403 | 23 | 181 | 3.2 | 11.3 | 0.00 | 1.12 | 0.46 | 75 | 1015.3 |
| 20260905163203 | 23 | 182 | 3.2 | 11.3 | 0.00 | 1.12 | 0.46 | 75 | 1015.2 |
| 20260905163003 | 23 | 182 | 1.6 | 11.3 | 0.00 | 1.12 | 0.46 | 75 | 1015.4 |
| 20260905162803 | 23 | 184 | 1.6 | 8.0 | 0.00 | 1.12 | 0.46 | 74 | 1015.4 |
| 20260905162603 | 23 | 185 | 1.6 | 6.4 | 0.00 | 1.12 | 0.46 | 75 | 1015.4 |
| 20260905162424 | 23 | 186 | 1.6 | 8.0 | 0.00 | 1.12 | 0.46 | 75 | 1015.4 |
| 20260905162203 | 23 | 185 | 3.2 | 8.0 | 0.00 | 1.12 | 0.46 | 75 | 1015.4 |
| 20260905162003 | 23 | 181 | 3.2 | 8.0 | 0.00 | 1.12 | 0.46 | 75 | 1015.3 |
| 20260905161803 | 23 | 180 | 4.8 | 8.0 | 0.00 | 1.12 | 0.46 | 75 | 1015.3 |
| 20260905161603 | 23 | 180 | 4.8 | 8.0 | 0.00 | 1.12 | 0.46 | 75 | 1015.3 |
| 20260905161424 | 23 | 179 | 4.8 | 9.7 | 0.00 | 1.12 | 0.46 | 75 | 1015.3 |
| 20260905161203 | 23 | 178 | 3.2 | 9.7 | 0.00 | 1.12 | 0.46 | 75 | 1015.3 |
| 20260905161003 | 23 | 180 | 3.2 | 9.7 | 0.00 | 1.12 | 0.46 | 75 | 1015.4 |
| 20260905160803 | 23 | 184 | 1.6 | 9.7 | 0.00 | 1.12 | 0.46 | 74 | 1015.3 |
| 20260905160603 | 23 | 185 | 1.6 | 9.7 | 0.00 | 1.12 | 0.46 | 74 | 1015.3 |
| 20260905160403 | 23 | 189 | 1.6 | 8.0 | 0.00 | 1.12 | 0.46 | 74 | 1015.3 |
| 20260905160203 | 23 | 190 | 1.6 | 8.0 | 0.00 | 1.12 | 0.46 | 74 | 1015.3 |
| 20260905160003 | 23 | 189 | 1.6 | 8.0 | 0.00 | 1.12 | 0.46 | 74 | 1015.3 |
| 20260905155803 | 23 | 187 | 1.6 | 6.4 | 0.00 | 1.12 | 0.46 | 75 | 1015.3 |
| 20260905155603 | 23 | 181 | 1.6 | 11.3 | 0.00 | 1.12 | 0.46 | 74 | 1015.3 |
| 20260905155403 | 23 | 182 | 1.6 | 11.3 | 0.00 | 1.12 | 0.46 | 74 | 1015.3 |
| 20260905155224 | 23 | 195 | 1.6 | 11.3 | 0.00 | 1.12 | 0.46 | 75 | 1015.3 |
| 20260905155003 | 23 | 196 | 1.6 | 11.3 | 0.00 | 1.12 | 0.46 | 74 | 1015.3 |
| 20260905154824 | 23 | 189 | 3.2 | 11.3 | 0.00 | 1.12 | 0.46 | 74 | 1015.3 |
| 20260905154603 | 23 | 225 | 3.2 | 9.7 | 0.00 | 1.12 | 0.46 | 75 | 1015.2 |
| 20260905154403 | 23 | 209 | 3.2 | 9.7 | 0.00 | 1.12 | 0.46 | 75 | 1015.2 |
| 20260905154203 | 23 | 193 | 1.6 | 9.7 | 0.00 | 1.12 | 0.46 | 75 | 1015.3 |
| 20260905154003 | 23 | 195 | 1.6 | 9.7 | 0.00 | 1.12 | 0.46 | 75 | 1015.4 |
| 20260905153803 | 23 | 197 | 1.6 | 8.0 | 0.00 | 1.12 | 0.46 | 75 | 1015.4 |
| 20260905153624 | 23 | 185 | 1.6 | 8.0 | 0.00 | 1.12 | 0.46 | 75 | 1015.3 |
| 20260905153424 | 23 | 185 | 1.6 | 8.0 | 0.00 | 1.12 | 0.46 | 77 | 1015.3 |
| 20260905153204 | 22 | 186 | 3.2 | 12.9 | 0.00 | 1.12 | 0.46 | 76 | 1015.3 |
| 20260905153024 | 22 | 188 | 4.8 | 12.9 | 0.00 | 1.12 | 0.46 | 76 | 1015.3 |
| 20260905152803 | 22 | 192 | 4.8 | 12.9 | 0.00 | 1.12 | 0.46 | 77 | 1015.2 |
| 20260905152603 | 22 | 190 | 4.8 | 12.9 | 0.00 | 1.12 | 0.46 | 76 | 1015.1 |
| 20260905152403 | 22 | 189 | 3.2 | 12.9 | 0.00 | 1.12 | 0.46 | 76 | 1015.2 |
| 20260905152203 | 22 | 184 | 3.2 | 9.7 | 0.00 | 1.12 | 0.46 | 76 | 1015.3 |
| 20260905152024 | 22 | 183 | 3.2 | 9.7 | 0.00 | 1.12 | 0.46 | 76 | 1015.3 |
| 20260905151803 | 22 | 175 | 1.6 | 9.7 | 0.00 | 1.12 | 0.46 | 76 | 1015.4 |
| 20260905151603 | 22 | 175 | 1.6 | 8.0 | 0.00 | 1.12 | 0.46 | 76 | 1015.4 |
| 20260905151403 | 22 | 177 | 1.6 | 8.0 | 0.00 | 1.12 | 0.46 | 76 | 1015.3 |
| 20260905151203 | 22 | 184 | 1.6 | 6.4 | 0.00 | 1.12 | 0.46 | 76 | 1015.3 |
| 20260905151024 | 22 | 197 | 1.6 | 9.7 | 0.00 | 1.12 | 0.46 | 77 | 1015.3 |
| 20260905150803 | 22 | 197 | 1.6 | 9.7 | 0.00 | 1.12 | 0.46 | 77 | 1015.3 |
| 20260905150603 | 22 | 197 | 1.6 | 9.7 | 0.00 | 1.12 | 0.46 | 77 | 1015.2 |
| 20260905150403 | 22 | 193 | 1.6 | 9.7 | 0.00 | 1.12 | 0.46 | 77 | 1015.1 |
| 20260905150203 | 22 | 206 | 1.6 | 9.7 | 0.00 | 1.12 | 0.46 | 77 | 1015.1 |
| 20260905150003 | 22 | 183 | 1.6 | 6.4 | 0.00 | 1.12 | 0.46 | 77 | 1015.0 |
| 20260905145803 | 22 | 182 | 1.6 | 6.4 | 0.00 | 1.12 | 0.46 | 77 | 1015.0 |
| 20260905145624 | 22 | 181 | 1.6 | 8.0 | 0.00 | 1.12 | 0.46 | 77 | 1015.0 |
| 20260905145424 | 22 | 179 | 3.2 | 8.0 | 0.00 | 1.12 | 0.46 | 77 | 1015.0 |
| 20260905145203 | 22 | 180 | 3.2 | 8.0 | 0.00 | 1.12 | 0.46 | 78 | 1014.9 |
| 20260905145003 | 22 | 179 | 4.8 | 9.7 | 0.00 | 1.12 | 0.46 | 78 | 1015.0 |
| 20260905144803 | 22 | 176 | 4.8 | 9.7 | 0.00 | 1.12 | 0.46 | 78 | 1015.0 |
| 20260905144603 | 22 | 177 | 4.8 | 9.7 | 0.00 | 1.12 | 0.46 | 78 | 1015.0 |
| 20260905144403 | 22 | 179 | 3.2 | 9.7 | 0.00 | 1.12 | 0.46 | 78 | 1015.0 |
| 20260905144203 | 22 | 177 | 3.2 | 9.7 | 0.00 | 1.12 | 0.46 | 78 | 1015.0 |
| 20260905144003 | 22 | 179 | 1.6 | 9.7 | 0.00 | 1.12 | 0.46 | 78 | 1015.0 |
| 20260905143803 | 22 | 193 | 1.6 | 9.7 | 0.00 | 1.12 | 0.46 | 78 | 1015.1 |
| 20260905143603 | 22 | 197 | 1.6 | 4.8 | 0.00 | 1.12 | 0.46 | 80 | 1015.0 |
| 20260905143403 | 22 | 187 | 1.6 | 4.8 | 0.00 | 1.14 | 0.46 | 79 | 1015.1 |
| 20260905143224 | 22 | 186 | 1.6 | 8.0 | 0.00 | 1.14 | 0.46 | 80 | 1015.0 |
| 20260905143024 | 22 | 182 | 3.2 | 9.7 | 0.00 | 1.14 | 0.46 | 80 | 1015.0 |
| 20260905142803 | 21 | 182 | 3.2 | 12.9 | 0.00 | 1.17 | 0.46 | 80 | 1015.0 |
| 20260905142603 | 21 | 183 | 3.2 | 12.9 | 0.00 | 1.19 | 0.46 | 80 | 1015.0 |
| 20260905142403 | 21 | 181 | 3.2 | 12.9 | 0.00 | 1.22 | 0.46 | 79 | 1015.0 |
| 20260905142203 | 21 | 180 | 3.2 | 12.9 | 0.00 | 1.24 | 0.46 | 80 | 1015.0 |
| 20260905142003 | 21 | 182 | 3.2 | 12.9 | 0.00 | 1.32 | 0.46 | 81 | 1015.0 |
| 20260905141803 | 21 | 183 | 4.8 | 11.3 | 0.00 | 1.37 | 0.46 | 81 | 1015.0 |
| 20260905141624 | 21 | 182 | 4.8 | 11.3 | 0.00 | 1.37 | 0.46 | 81 | 1015.0 |
| 20260905141403 | 21 | 182 | 4.8 | 11.3 | 0.00 | 1.37 | 0.46 | 81 | 1015.0 |
| 20260905141203 | 21 | 182 | 4.8 | 11.3 | 0.00 | 1.37 | 0.46 | 80 | 1014.9 |
| 20260905141024 | 21 | 182 | 3.2 | 8.0 | 0.00 | 1.37 | 0.46 | 81 | 1014.9 |
| 20260905140824 | 21 | 181 | 3.2 | 8.0 | 0.00 | 1.37 | 0.46 | 81 | 1014.9 |
| 20260905140603 | 21 | 179 | 1.6 | 8.0 | 0.00 | 1.37 | 0.46 | 81 | 1014.8 |
| 20260905140403 | 21 | 181 | 1.6 | 8.0 | 0.00 | 1.37 | 0.46 | 82 | 1014.8 |
| 20260905140203 | 21 | 181 | 1.6 | 6.4 | 0.00 | 1.37 | 0.46 | 82 | 1014.8 |
| 20260905140004 | 21 | 181 | 1.6 | 6.4 | 0.00 | 1.37 | 0.46 | 82 | 1014.8 |
| 20260905135803 | 21 | 181 | 1.6 | 6.4 | 0.00 | 1.37 | 0.46 | 82 | 1014.8 |
| 20260905135603 | 21 | 181 | 1.6 | 6.4 | 0.00 | 1.37 | 0.46 | 82 | 1014.8 |
| 20260905135403 | 21 | 180 | 1.6 | 6.4 | 0.00 | 1.37 | 0.46 | 82 | 1014.8 |
| 20260905135203 | 21 | 179 | 1.6 | 4.8 | 0.00 | 1.37 | 0.46 | 82 | 1014.8 |
| 20260905135003 | 21 | 179 | 1.6 | 6.4 | 0.00 | 1.37 | 0.46 | 82 | 1014.8 |
| 20260905134803 | 21 | 181 | 1.6 | 6.4 | 0.00 | 1.37 | 0.46 | 82 | 1014.8 |
| 20260905134603 | 21 | 181 | 1.6 | 6.4 | 0.00 | 1.37 | 0.46 | 82 | 1014.8 |
| 20260905134403 | 21 | 182 | 1.6 | 6.4 | 0.00 | 1.37 | 0.46 | 82 | 1014.8 |
| 20260905134203 | 21 | 183 | 1.6 | 6.4 | 0.00 | 1.37 | 0.46 | 82 | 1014.7 |
| 20260905134003 | 21 | 184 | 1.6 | 6.4 | 0.00 | 1.37 | 0.46 | 82 | 1014.7 |
| 20260905133803 | 21 | 185 | 1.6 | 6.4 | 0.00 | 1.37 | 0.46 | 82 | 1014.7 |
| 20260905133603 | 20 | 186 | 3.2 | 8.0 | 0.00 | 1.37 | 0.46 | 82 | 1014.7 |
| 20260905133403 | 20 | 186 | 3.2 | 8.0 | 0.00 | 1.37 | 0.46 | 82 | 1014.7 |
| 20260905133203 | 20 | 185 | 3.2 | 8.0 | 0.00 | 1.37 | 0.46 | 82 | 1014.7 |
| 20260905133024 | 20 | 184 | 3.2 | 8.0 | 0.00 | 1.37 | 0.46 | 82 | 1014.7 |
| 20260905132803 | 20 | 183 | 3.2 | 8.0 | 0.00 | 1.37 | 0.46 | 82 | 1014.7 |
| 20260905132603 | 20 | 182 | 3.2 | 8.0 | 0.00 | 1.37 | 0.46 | 82 | 1014.7 |
| 20260905132424 | 20 | 181 | 3.2 | 8.0 | 0.00 | 1.37 | 0.46 | 82 | 1014.7 |
| 20260905132203 | 20 | 182 | 3.2 | 8.0 | 0.00 | 1.37 | 0.46 | 82 | 1014.7 |
| 20260905132003 | 20 | 184 | 3.2 | 8.0 | 0.00 | 1.37 | 0.46 | 82 | 1014.7 |
| 20260905131803 | 20 | 185 | 1.6 | 8.0 | 0.00 | 1.37 | 0.46 | 82 | 1014.7 |
| 20260905131603 | 20 | 186 | 1.6 | 6.4 | 0.00 | 1.37 | 0.46 | 82 | 1014.7 |
| 20260905131403 | 20 | 188 | 1.6 | 8.0 | 0.00 | 1.37 | 0.46 | 82 | 1014.7 |
| 20260905131203 | 20 | 188 | 1.6 | 11.3 | 0.00 | 1.37 | 0.46 | 82 | 1014.7 |
| 20260905131003 | 20 | 188 | 1.6 | 11.3 | 0.00 | 1.37 | 0.46 | 82 | 1014.7 |
| 20260905130803 | 20 | 184 | 3.2 | 11.3 | 0.00 | 1.37 | 0.46 | 82 | 1014.7 |
| 20260905130624 | 20 | 184 | 3.2 | 11.3 | 0.00 | 1.37 | 0.46 | 82 | 1014.7 |
| 20260905130403 | 20 | 184 | 3.2 | 11.3 | 0.00 | 1.37 | 0.46 | 82 | 1014.7 |
| 20260905130203 | 20 | 183 | 4.8 | 11.3 | 0.00 | 1.37 | 0.46 | 82 | 1014.8 |
| 20260905130003 | 20 | 184 | 6.4 | 11.3 | 0.00 | 1.40 | 0.46 | 82 | 1014.8 |
| 20260905125803 | 20 | 186 | 6.4 | 11.3 | 0.00 | 1.40 | 0.46 | 82 | 1014.8 |
| 20260905125603 | 20 | 187 | 4.8 | 11.3 | 0.00 | 1.40 | 0.46 | 82 | 1014.8 |
| 20260905125403 | 20 | 186 | 6.4 | 14.5 | 0.00 | 1.40 | 0.46 | 82 | 1014.8 |
| 20260905125203 | 20 | 182 | 6.4 | 14.5 | 0.00 | 1.40 | 0.46 | 82 | 1014.8 |
| 20260905125003 | 20 | 182 | 4.8 | 14.5 | 0.00 | 1.40 | 0.46 | 82 | 1014.8 |
| 20260905124803 | 20 | 179 | 6.4 | 14.5 | 0.00 | 1.40 | 0.46 | 82 | 1014.8 |
| 20260905124603 | 20 | 177 | 4.8 | 14.5 | 0.00 | 1.40 | 0.46 | 82 | 1014.8 |
| 20260905124403 | 20 | 174 | 3.2 | 12.9 | 0.00 | 1.40 | 0.46 | 82 | 1014.7 |
| 20260905124203 | 20 | 181 | 3.2 | 12.9 | 0.00 | 1.40 | 0.46 | 82 | 1014.7 |
| 20260905124003 | 20 | 180 | 3.2 | 9.7 | 0.00 | 1.40 | 0.46 | 82 | 1014.7 |
| 20260905123803 | 20 | 183 | 3.2 | 9.7 | 0.00 | 1.45 | 0.46 | 82 | 1014.7 |
| 20260905123603 | 20 | 184 | 3.2 | 8.0 | 0.00 | 1.47 | 0.46 | 82 | 1014.7 |
| 20260905123403 | 20 | 182 | 4.8 | 8.0 | 0.00 | 1.50 | 0.46 | 82 | 1014.7 |
| 20260905123203 | 20 | 180 | 4.8 | 8.0 | 0.00 | 1.50 | 0.46 | 82 | 1014.7 |
| 20260905123003 | 20 | 180 | 4.8 | 11.3 | 0.00 | 1.50 | 0.46 | 82 | 1014.7 |
| 20260905122803 | 20 | 180 | 4.8 | 11.3 | 0.00 | 1.50 | 0.46 | 82 | 1014.6 |
| 20260905122603 | 20 | 181 | 4.8 | 11.3 | 0.00 | 1.50 | 0.46 | 82 | 1014.6 |
| 20260905122403 | 20 | 183 | 4.8 | 11.3 | 0.00 | 1.50 | 0.46 | 82 | 1014.6 |
| 20260905122224 | 20 | 183 | 4.8 | 11.3 | 0.00 | 1.50 | 0.46 | 82 | 1014.6 |
| 20260905122003 | 20 | 182 | 4.8 | 11.3 | 0.00 | 1.50 | 0.46 | 82 | 1014.6 |
| 20260905121824 | 20 | 183 | 4.8 | 11.3 | 0.00 | 1.50 | 0.46 | 82 | 1014.5 |
| 20260905121603 | 20 | 183 | 3.2 | 9.7 | 0.00 | 1.50 | 0.46 | 82 | 1014.5 |
| 20260905121403 | 20 | 182 | 1.6 | 9.7 | 0.00 | 1.50 | 0.46 | 82 | 1014.5 |
| 20260905121203 | 20 | 181 | 1.6 | 6.4 | 0.00 | 1.50 | 0.46 | 82 | 1014.3 |
| 20260905121003 | 20 | 183 | 0.0 | 4.8 | 0.00 | 1.50 | 0.46 | 82 | 1014.3 |
| 20260905120804 | 20 | 183 | 0.0 | 4.8 | 0.00 | 1.50 | 0.46 | 82 | 1014.3 |
| 20260905120603 | 20 | 0 | 0.0 | 0.0 | 0.00 | 1.50 | 0.46 | 82 | 1014.2 |
| 20260905120424 | 20 | 0 | 0.0 | 0.0 | 0.00 | 1.50 | 0.46 | 82 | 1014.2 |
| 20260905120203 | 20 | 0 | 0.0 | 0.0 | 0.00 | 1.50 | 0.46 | 82 | 1014.1 |
| 20260905120024 | 20 | 0 | 0.0 | 0.0 | 0.00 | 1.50 | 0.46 | 82 | 1014.0 |
| 20260905115803 | 20 | 183 | 0.0 | 3.2 | 0.00 | 1.50 | 0.46 | 82 | 1014.0 |
| 20260905115603 | 20 | 183 | 0.0 | 4.8 | 0.00 | 1.50 | 0.46 | 82 | 1014.0 |
| 20260905115424 | 20 | 183 | 0.0 | 4.8 | 0.00 | 1.50 | 0.46 | 82 | 1014.0 |
| 20260905115203 | 20 | 183 | 0.0 | 4.8 | 0.00 | 1.50 | 0.46 | 82 | 1014.0 |
| 20260905115003 | 20 | 183 | 0.0 | 4.8 | 0.00 | 1.50 | 0.46 | 82 | 1013.9 |
| 20260905114803 | 20 | 183 | 0.0 | 4.8 | 0.00 | 1.50 | 0.46 | 82 | 1014.0 |
| 20260905114603 | 20 | 0 | 0.0 | 0.0 | 0.00 | 1.50 | 0.46 | 82 | 1013.9 |
| 20260905114424 | 20 | 0 | 0.0 | 0.0 | 0.00 | 1.50 | 0.46 | 82 | 1014.0 |
| 20260905114203 | 20 | 0 | 0.0 | 0.0 | 0.00 | 1.50 | 0.46 | 82 | 1013.9 |
| 20260905114003 | 20 | 0 | 0.0 | 0.0 | 0.00 | 1.50 | 0.46 | 82 | 1013.9 |